GFSMA_prec_radar_114.txt.gz
Reflectivity
-20 -20 -20 -20 -20 -20 -20 -20 -20 -20 -20 -20 -20 -20 -20 -20 -20 -3 25 29 19 26 5 -20 -5 -20 -20 -20 3 4 5 4 9 -11 4 6 8 5 5 -20 -20 -20 -20
-20 -20 -20 -20 -20 -20 -20 -20 -20 -20 -20 -20 -20 -20 -20 -20 -20 7 -3 27 31 30 -5 -18 -20 -20 -20 -18 -3 15 10 3 18 -7 1 2 9 8 4 -20 -20 -20 -20
-20 -20 -20 -20 -20 -20 -20 -20 -20 -20 -20 -20 -20 -20 -20 -20 -20 -20 0 29 30 27 -9 -20 -20 -20 -20 5 11 16 15 2 14 -2 -8 0 13 7 -20 -20 -20 -20 -20
-20 -20 -20 -20 -20 -20 -20 -20 -20 -20 -20 -20 -20 -20 -20 -20 -20 8 14 28 25 19 -20 -20 -20 -20 -20 12 -1 13 4 -4 16 5 6 -20 1 7 -2 -20 -20 -20 -20
-20 -20 -20 -20 -20 -20 -20 -20 -20 -20 -20 -20 -20 -20 -20 -20 -20 -14 26 18 25 -10 -20 -20 -20 -3 -1 -1 10 5 -17 -20 9 7 6 -20 -16 12 5 -20 -20 -20 -20
-20 -20 -20 -20 -20 -20 -14 -20 -20 -10 -20 14 -0 -20 -20 -15 -6 21 31 14 14 -20 -20 -20 0 1 9 11 -1 -20 8 3 -3 8 13 -20 5 16 3 3 -20 -20 -20
-20 -3 -20 -20 -20 -20 -8 -3 1 -3 13 4 18 -4 -1 -5 10 25 39 26 13 -20 -20 -20 -20 -20 11 9 -14 -20 -0 1 0 14 16 7 3 17 6 -20 -20 -20 -20
-20 -20 -20 -20 -20 -20 -20 12 9 14 11 11 18 23 15 13 2 18 30 24 -20 -20 -20 -20 -20 5 -18 8 -14 14 -14 3 17 14 12 10 5 8 0 -20 -20 -20 -20
-20 -20 -20 -20 -20 -20 -20 -12 4 6 8 9 13 22 -9 -4 1 20 31 19 -20 -20 -20 -20 1 11 4 -20 -20 -20 -20 -20 0 0 2 8 -3 -20 -20 -20 -20 -20 -20
-20 -20 -20 -12 -20 -20 -4 0 -20 -16 9 -5 10 8 -12 -20 -1 11 30 23 9 -20 -20 -20 0 -20 -20 -20 -20 -20 -20 -20 -20 -9 7 -20 -12 -20 -20 -20 -20 -20 -20
-20 -20 -20 -20 -20 -20 -20 -20 -20 -1 -14 1 -8 -14 13 0 12 28 26 23 7 10 -15 0 -19 -19 -20 -20 -20 -20 -20 -20 -20 -20 -15 -18 -18 -20 -20 -20 -20 -20 -20
-20 -20 -20 -20 -20 -20 -20 -20 -20 1 -15 -3 3 -11 -17 10 33 8 19 29 30 24 30 22 -1 -17 -5 -20 -20 -20 -20 -20 -20 -20 -20 -20 -20 -20 -20 -20 -20 -20 -20
-20 -20 -20 -11 -18 -20 -20 -20 -3 -2 -18 -7 6 -7 -3 23 12 24 31 30 30 29 28 24 15 13 7 9 -1 -20 -20 -20 -20 -20 -20 -20 -20 -20 -20 -20 -20 -20 -20
7 -20 -20 -20 -20 -20 -20 -20 6 3 -6 -1 1 3 14 2 23 23 30 33 25 28 23 22 7 -19 -19 14 1 -20 -20 -20 -20 -20 -20 -20 -20 -20 -20 -20 -20 -20 -20
-15 -20 -20 -20 -20 -20 -20 4 4 12 1 -11 -19 -5 -20 -6 21 29 31 26 30 23 10 -7 8 1 -2 9 15 17 19 23 -20 -20 -20 -20 -20 -20 -20 -20 -20 -20 -20
-20 -20 -20 -20 -20 -20 -5 9 2 18 -9 -20 -20 -20 -20 -2 10 23 23 27 18 -6 -7 -20 -20 6 18 20 26 24 23 29 23 12 -9 -20 -20 -20 -20 -20 -20 -20 -20
-0 -20 -20 -20 -20 -14 -19 9 13 -14 -14 -20 -20 -20 -18 -20 20 23 25 21 19 -20 -12 -20 -17 -5 4 6 18 18 15 18 16 23 11 -10 -14 -20 -20 -20 -20 -20 -20
-12 8 -20 -20 -20 -1 -2 -18 5 15 -3 14 -20 -17 -8 14 23 -4 -0 7 13 11 -5 15 17 3 22 25 30 23 17 14 16 28 -16 26 21 21 11 7 -2 11 -20
29 5 -17 -15 -20 -12 -10 5 5 15 -2 -13 -19 12 -16 -17 18 26 20 32 30 22 26 26 19 21 21 30 29 20 25 18 6 25 26 21 -13 -4 3 9 9 13 -4
29 12 -4 -20 -12 7 4 -5 18 15 -17 12 6 -7 21 13 6 15 13 4 23 33 23 24 25 27 30 30 29 26 21 20 5 -5 -6 -9 8 -1 16 -20 -20 -4 -5
31 24 3 -20 -14 -17 2 16 14 15 10 8 -19 -20 -17 -13 16 -4 -20 -2 25 25 25 11 22 25 16 14 15 15 9 11 13 -20 -20 -20 16 -11 -8 7 10 -11 -20
24 -12 21 -19 18 -20 16 7 19 17 3 7 -20 14 -8 3 9 19 17 12 10 3 10 3 -3 5 1 -20 -20 3 -11 2 21 9 -10 -20 -20 -20 -8 6 15 11 6
30 -9 1 23 -20 21 4 12 13 -5 19 13 17 10 4 -7 18 4 9 -4 -11 5 14 14 10 -6 -20 -20 -19 -20 -20 -20 -20 -20 -19 -14 -20 -6 19 26 28 21 18
29 25 2 -20 -0 2 20 -7 -15 -15 5 8 7 10 13 12 3 -9 -20 -20 -20 -15 -11 -12 -20 -12 9 13 -11 -20 -20 -11 9 15 -5 13 26 21 16 26 33 24 13
28 41 16 12 8 10 20 29 27 -20 -7 7 11 -17 -7 0 16 6 -13 -20 -20 -20 7 -5 13 20 14 -17 3 7 4 28 22 8 20 21 5 16 26 8 16 21 14
31 37 35 18 35 12 21 17 22 17 9 -5 24 28 27 18 23 12 6 13 24 14 4 -13 -14 3 8 15 20 13 3 24 20 28 18 29 21 14 8 6 7 -16 -20

GFSMA_prec_radar_117.txt.gz
Reflectivity
-20 -20 -20 -20 -20 -20 -20 -20 -20 -20 -20 -20 -20 -20 -20 -20 -20 -20 -20 28 29 30 24 19 -12 -20 -20 -11 -8 1 15 18 8 15 3 3 14 8 16 8 5 -9 -2
-20 -20 -20 -20 -20 -20 -20 -20 -20 -20 -20 -20 -20 -20 -20 -20 -20 -20 -6 25 -0 20 31 25 5 -20 -17 -20 -14 -20 8 14 13 11 13 6 13 15 14 12 -4 2 -8
-20 -20 -20 -20 -20 -20 -20 -20 -20 -20 -20 -20 -20 -20 -20 -20 -20 -20 -20 -20 12 28 34 32 13 9 -10 -20 -11 -9 8 11 9 12 10 12 8 12 7 -2 -2 -1 -3
-20 -20 -20 -20 -20 -20 -20 -20 -20 -20 -20 -20 -20 -20 -20 -20 -20 -20 -20 -20 12 18 30 36 10 -16 -16 -0 6 -20 15 -6 9 17 10 10 10 6 2 -20 -1 -1 -20
-20 -20 -20 -20 -20 -20 -20 -20 -20 -20 -20 -20 -20 -20 -20 -20 -20 -20 -20 -20 19 31 25 26 -6 13 -11 -20 14 -13 9 6 13 16 13 10 8 7 13 -20 -20 -20 -20
-20 -20 -20 -20 -20 -20 -3 -14 -20 -20 -20 -20 -4 -20 -18 -12 -20 -13 -20 -17 22 30 27 21 10 9 9 13 7 12 9 -15 -4 16 16 13 10 9 14 -4 -20 -20 -20
-20 -20 -20 -20 -20 -5 -9 12 13 -4 10 1 -20 -10 -5 -20 -20 -7 1 10 31 25 26 13 -20 -20 7 11 16 -4 -2 10 8 17 15 15 17 8 13 8 -20 -20 -20
-20 -20 -20 -20 -20 -11 -11 12 13 13 -1 14 -15 11 13 11 -8 -1 8 6 30 31 19 -20 4 -16 -9 7 13 16 -18 12 -15 16 16 14 8 17 13 4 -15 -20 -20
-20 -20 -20 -20 -20 -15 -3 -11 -12 11 11 14 11 14 4 -1 12 9 -4 5 12 30 25 7 -12 -4 10 8 13 11 -16 12 12 13 15 14 11 11 12 2 3 -16 -20
-7 -20 -20 -20 -20 -20 3 -20 -19 -7 13 6 13 13 10 1 12 -3 6 7 22 24 24 -19 -20 7 11 9 -14 -20 -20 -20 -20 -9 16 13 8 10 4 2 -8 -20 -20
-20 -20 -20 -20 -20 -16 -1 -1 9 -8 15 -2 13 -9 8 5 4 -18 5 8 20 28 26 -18 -20 4 12 12 4 -20 -20 -20 -20 -20 -20 2 5 -0 5 -19 -20 -20 -20
9 -14 -20 -20 -20 -20 -20 -20 -18 -4 2 14 8 -8 8 -13 -2 12 31 20 35 17 21 14 4 -20 -8 -16 -6 -9 -6 -20 -20 -20 -20 -20 1 -20 -20 -20 -20 -20 -20
-7 -18 17 -20 -20 -20 -20 -20 -7 -20 -20 -9 -8 10 -20 -20 -20 -15 24 33 29 16 24 27 21 1 19 11 -16 -20 -20 -20 -20 -20 -20 -20 -20 -20 -20 -20 -20 -20 -20
-20 -20 -20 8 -20 -20 -20 -4 -8 -20 -7 11 2 -19 -20 -12 -20 -4 8 29 28 27 26 30 30 26 17 12 9 -4 -20 -20 11 -2 -12 -14 -20 -20 -20 -20 -20 -20 -20
-20 -20 -20 -10 -18 27 -20 11 1 4 -9 4 -4 -20 -18 -20 20 8 18 30 29 33 28 26 32 32 24 -0 -20 -20 -20 -20 -19 -20 -20 -20 -17 -17 -20 -20 -20 -20 -20
-20 -20 -20 -4 5 -20 -20 -1 -2 -20 -20 14 1 -15 -6 -8 -20 2 25 29 30 29 32 33 28 10 -15 -8 -20 -20 -20 -20 -14 1 -13 -20 -20 -20 -20 -20 -20 -20 -20
4 26 -15 4 -2 -20 -20 -20 -20 -20 -16 10 1 11 7 -20 -17 -19 16 27 19 20 9 29 12 -13 9 -8 -20 -5 19 24 23 23 19 19 19 11 -20 -19 -18 -18 -20
23 25 23 28 -10 -20 -20 -20 -20 -20 -15 3 -19 -12 -20 -20 -20 -20 10 21 18 26 23 16 -20 -20 -20 -12 -20 10 24 23 24 24 26 26 23 -20 -19 -20 -20 -20 -20
13 24 21 26 25 -14 -20 -18 -14 -20 -15 -20 13 -20 -19 -17 -1 13 4 -6 25 25 17 28 11 12 9 1 -10 18 25 19 7 24 17 22 15 -15 -20 16 -3 -15 -14
24 23 25 25 26 20 -4 -7 8 -7 8 -11 4 -6 3 -14 22 21 2 19 17 29 29 29 26 30 31 24 27 17 25 27 23 29 18 11 8 12 10 -6 -7 17 11
23 24 23 23 14 16 7 1 0 16 -13 5 12 -7 0 7 25 10 16 30 23 26 21 29 31 25 31 29 29 24 27 30 31 28 18 22 -7 -1 -11 -7 -4 -3 4
22 22 28 29 26 16 14 8 7 -20 -20 -9 15 16 3 16 -4 23 30 -13 8 22 -5 20 20 21 16 -8 19 22 18 19 27 26 27 24 7 -2 -20 -20 -12 -7 -20
17 18 20 37 28 -11 6 4 8 -6 -9 -9 15 14 -0 -20 15 2 13 21 18 20 7 9 -10 5 -6 6 -13 16 6 -4 -11 12 11 23 15 -4 -9 -1 0 -1 4
30 30 40 25 28 -8 18 7 6 1 -15 -20 -19 -9 25 13 27 5 3 5 17 -12 -7 -16 -20 -20 -20 -20 -0 -17 -20 1 -8 -20 -9 -13 1 -12 -10 3 23 25 11
29 40 43 33 36 8 17 7 13 8 19 2 -20 17 13 6 20 14 -1 13 -20 -20 11 13 5 6 8 9 -6 -16 -7 -19 -20 -20 2 3 10 15 25 20 21 25 29
33 29 35 30 33 41 25 20 21 19 3 20 28 17 14 6 16 15 -4 -20 -19 -20 -20 -20 -13 7 7 8 14 -11 -20 -20 -3 13 10 21 26 21 22 26 27 34 24

GFSMA_prec_radar_123.txt.gz
Reflectivity
-18 -8 0 4 4 5 -20 -20 -20 -20 -20 -20 -20 -20 -20 -20 -20 -20 -20 -20 -20 -20 28 33 35 34 -19 -20 -12 -15 -13 -19 0 -14 7 13 10 14 12 11 11 7 3
-20 -20 -13 -6 -20 -20 -20 -20 -20 -20 -20 -20 -20 -20 -20 -20 -20 -20 -20 -20 -20 -20 -10 30 37 37 27 -8 -3 2 -8 -1 12 11 14 10 13 11 6 13 3 10 -0
-20 -20 -20 -20 -20 -18 -20 -20 -20 -20 -20 -20 -20 -20 -20 -20 -20 -20 -20 -20 -11 7 -17 -17 31 31 32 25 -20 -20 -14 -8 15 8 12 9 12 7 4 11 6 10 -6
-20 -17 4 -20 -20 -20 -20 -20 -20 -20 -20 -20 -20 -20 -20 -20 -20 -20 -20 -20 -20 -20 8 -20 27 27 30 34 -18 -20 -20 6 9 -14 15 8 11 10 9 13 8 1 -8
-17 -20 -7 -20 -20 -20 -20 -9 -5 -20 -20 -20 -20 -20 -20 -20 -20 -20 -20 -20 -20 -20 5 6 -18 16 26 22 28 -14 -13 6 9 0 9 8 7 13 11 12 11 -4 -20
-19 -19 -20 -20 -20 -20 -20 -20 -20 -20 -13 -18 -13 -17 -10 -4 -17 -20 -20 -20 -20 -20 -20 -18 -6 8 29 15 20 16 -9 11 9 5 13 10 7 11 13 12 -6 -19 -20
-20 -20 -20 -20 -20 -20 -20 -20 -20 -20 -20 -20 -17 -16 -20 -20 -20 -20 -20 -20 -11 -3 -2 -3 6 14 25 33 17 24 21 9 -4 -20 -13 14 -1 3 10 7 5 -20 -20
-20 -20 -20 -20 -20 -20 -20 -20 -20 -17 4 11 -10 -17 -20 -0 -1 -1 -3 -1 -20 -1 -2 -4 6 22 21 33 19 7 11 7 -20 -11 17 7 -4 -2 11 11 7 -19 -20
-20 -20 -20 -20 -20 -20 -16 -20 -19 10 -19 2 6 -1 -8 -7 -20 -9 -14 2 -11 -4 4 -19 -3 6 28 33 24 15 -20 14 4 -13 -7 3 5 2 7 14 10 7 -7
-20 -20 -20 -20 -20 -20 -10 -15 -20 -2 -6 -20 6 -12 -20 -20 -19 -14 -7 4 2 6 7 3 -6 -16 33 28 20 -19 -20 -20 11 6 -19 14 2 -18 -20 2 11 8 4
-3 -20 23 -18 -19 -20 -18 -20 -20 -0 -11 -2 -1 -3 -19 -20 -20 -16 12 4 5 -7 2 -5 5 -9 26 19 0 -20 -20 -20 13 14 15 11 -18 8 -18 -17 5 9 1
-20 -20 -6 -2 16 32 25 10 -0 -20 -20 -20 -12 -1 -20 -2 -15 -20 -10 -13 -20 -3 -14 -5 6 9 36 29 -17 -3 -20 -20 -19 -20 10 16 15 -6 7 -3 -4 -1 6
-20 -20 -11 23 -12 -2 17 23 12 3 -14 -15 -20 -10 -16 2 17 -20 -4 0 -20 1 -8 -20 -4 9 16 33 23 26 8 -20 -20 -20 -20 14 4 -8 -8 -5 -5 -20 -19
-20 22 23 30 -8 -1 10 14 29 -11 -20 -20 -20 -3 -14 -9 3 11 13 -6 7 10 -20 -15 30 18 11 31 18 18 -20 0 -19 -20 -10 -20 -20 -20 -14 -14 -5 -20 -18
-9 3 29 12 -3 -13 -7 -14 -6 18 -20 -20 -17 -20 -20 -20 -4 -2 1 9 15 -1 -19 -9 5 4 11 29 20 17 -20 -20 -20 -20 -20 -20 -20 -20 -20 -20 -11 6 12
8 -4 -14 -2 -20 -20 -20 -1 -7 -8 -4 -12 -11 -20 -20 -20 -5 -10 -4 11 4 10 4 8 1 2 22 26 25 16 -10 13 -20 -20 3 -20 -20 -20 -20 -20 -20 -20 13
20 9 7 2 -15 -3 -20 -20 13 8 -11 -19 -20 -14 6 6 -16 -19 -12 -6 6 5 -8 -20 -6 23 25 32 30 24 24 23 19 20 -19 -20 -20 -20 -20 -20 -20 -20 -20
-20 -16 11 17 -1 -0 -20 -19 20 12 -19 -3 15 -10 -20 9 -20 -20 -20 -4 6 5 -20 1 7 22 30 23 28 30 30 23 16 -3 -1 -20 -20 -20 -20 -20 -20 -20 -20
-1 7 -17 -4 23 13 21 12 16 -6 1 -6 -12 14 7 10 -16 -10 -5 5 -0 -20 -20 -5 -7 23 25 29 24 23 18 -20 -20 -20 11 -12 -20 -20 -20 -20 11 13 -6
10 16 13 19 -4 -6 -4 8 16 9 -18 28 -0 -4 -12 1 -20 -4 -5 -3 1 -20 -20 -0 -1 27 25 25 17 22 15 -1 -20 -20 -20 -20 -20 -17 -6 13 10 19 22
15 18 16 8 19 17 14 18 15 17 10 26 4 19 5 -8 -20 -20 -19 -20 -20 -20 -20 -14 16 21 30 28 16 13 21 22 13 -20 -18 5 16 18 9 6 4 -14 10
-5 13 -0 15 14 22 24 -5 9 8 3 0 9 17 8 -7 -20 -1 -17 -4 -19 -20 -20 -20 -20 -7 11 22 27 28 28 23 21 7 23 23 26 22 30 24 30 24 29
-15 -3 20 8 19 39 29 22 32 20 24 28 35 33 12 4 -10 1 4 -20 -15 5 16 -11 -20 -19 -20 7 6 26 29 31 31 18 26 27 25 29 26 23 24 26 15
-18 -20 -13 -20 -20 -6 3 12 34 11 32 40 45 35 19 20 6 11 -19 -6 -7 1 -5 10 -1 -5 -19 -20 -14 -3 26 31 26 29 28 27 22 23 25 30 31 22 20
-20 -20 -18 -15 -20 -15 0 9 28 11 25 38 34 35 8 10 21 18 4 -1 -10 -5 13 11 2 18 18 20 9 -17 -5 19 14 27 22 17 21 3 9 20 28 28 23
-20 -20 -20 -20 -20 -20 6 -9 22 36 37 34 37 40 36 29 23 20 3 14 -20 -12 3 -6 -0 13 20 11 29 21 10 16 10 20 11 -1 -17 -20 -19 -10 -11 -9 -1

GFSMA_prec_radar_126.txt.gz
Reflectivity
2 2 2 -4 0 3 1 -16 -20 12 -15 -20 -20 -20 -20 -20 -20 -20 -20 -16 -20 -20 -20 4 -3 33 39 27 9 -10 12 5 5 -18 -20 -20 7 8 6 2 3 9 -3
-8 -1 2 7 6 6 4 -11 -14 -14 8 -20 -20 -20 -20 -20 -20 -20 -20 3 -20 -20 -20 -20 -4 22 36 35 8 -12 -15 -13 7 -13 -20 -5 11 -11 -13 11 9 10 -5
-4 -2 0 5 -1 2 5 4 7 -1 5 -1 -2 -20 -20 -20 -20 -20 -20 -20 7 5 -17 -14 -11 28 17 21 19 -20 6 -18 1 -19 -11 5 -2 9 2 12 1 6 0
-20 -20 -20 -3 -14 11 3 2 -2 -2 -11 4 14 -6 -18 -20 -20 -20 -20 -20 -20 0 9 -20 -19 -20 27 10 20 17 -20 -20 2 -20 -16 -6 7 8 -0 9 5 8 2
2 -20 -20 -16 -4 -20 -10 -1 -17 -20 -13 10 10 9 8 14 -9 -20 -20 -20 -20 -20 -12 -16 -20 -20 -20 18 11 15 22 -20 -20 -20 0 -20 3 0 -20 12 1 9 -9
-14 -15 -4 -16 -20 -14 -20 -2 3 -13 1 5 -19 9 6 9 5 8 7 2 -20 -20 -20 -1 10 -20 -20 -20 20 9 21 6 -20 -20 -20 -20 -17 3 4 12 9 5 -7
-20 -20 -5 2 -20 -20 -20 -20 -20 -7 3 7 13 6 2 8 4 -20 -4 -20 -20 -20 -6 25 24 6 8 -20 -20 23 25 9 23 -13 9 -20 -20 1 12 9 7 3 1
-16 -20 -4 -20 -20 -10 -20 -20 -20 -1 -6 -1 -4 4 13 -2 5 -5 -1 -20 -9 -1 0 -6 -20 3 9 26 6 -3 21 11 -3 -1 18 -20 -20 -14 -5 4 7 5 -5
-20 2 -15 -2 -2 -20 -6 -20 -20 -13 -8 -1 5 -18 9 -17 -20 -8 -10 -11 -12 -10 -13 -13 -12 4 6 11 -1 33 28 16 9 3 -19 -20 -20 -6 7 7 5 4 -8
-20 -20 -20 -17 -5 -3 -20 -14 -17 -18 4 -15 3 10 -20 -20 -18 -18 -14 -20 -20 -10 -5 -3 0 6 5 13 -8 16 22 23 5 8 -20 -20 -20 -5 3 7 8 6 3
-2 -20 -20 -19 3 -6 -1 -14 -20 -17 5 13 7 6 0 4 1 -7 -17 10 -8 -4 -2 7 -18 6 1 -5 1 18 32 4 20 -11 -1 19 4 -14 -6 4 7 6 8
1 8 7 6 6 6 -2 -10 6 -1 6 9 16 0 -3 2 5 7 5 -12 -7 7 3 2 3 5 20 15 -2 25 36 12 -16 -20 -20 -20 -20 -20 -17 -7 -12 -4 9
-5 -14 10 9 -14 6 -0 -2 29 23 -6 22 19 8 -8 -18 -12 -3 4 -0 6 9 7 7 18 4 2 -11 -4 10 29 1 -18 -20 -20 -9 -20 -11 -20 -20 -3 0 -20
10 -19 2 11 14 22 5 4 2 4 -14 -14 -17 14 3 3 -3 -4 2 12 12 12 9 1 2 2 8 4 7 14 34 21 -20 7 16 -20 -4 -20 -20 -20 -18 4 0
8 13 15 -1 24 31 9 4 25 7 24 5 14 2 5 11 11 9 -0 12 16 9 -13 -20 -8 -3 6 -18 -3 7 27 13 16 19 -20 -20 -20 4 -1 6 3 -7 -4
13 -7 15 17 8 9 6 17 30 -6 -7 -3 2 -5 -9 -11 11 21 -5 -13 -8 -2 5 -15 6 -6 8 -20 -12 3 15 24 26 21 -11 -20 -17 -18 -20 -20 -20 4 1
26 10 12 15 16 11 20 9 5 -9 2 1 26 11 20 -9 13 6 -0 -7 -20 -19 15 16 -13 -15 8 -20 -7 16 30 22 19 4 -19 -20 -17 -18 -20 -20 -20 -20 -20
11 -2 4 16 13 4 21 5 0 -15 -12 9 24 25 6 13 6 6 -12 -6 -16 -15 14 2 1 -19 -20 -20 -8 14 24 24 28 30 -12 19 -11 -20 -5 -7 -20 -20 -20
5 9 10 -0 18 22 19 22 8 14 -20 7 21 -7 10 19 12 -11 -20 -10 3 -17 15 15 -14 -20 -8 -14 14 24 15 20 27 32 31 27 24 23 20 7 11 -2 -6
14 16 14 19 15 18 12 12 17 11 8 21 20 25 -19 2 21 -17 -0 -6 2 1 9 14 -2 -20 -11 -16 -5 5 2 6 20 30 28 31 31 18 12 -1 -15 -20 -20
-7 12 16 21 22 11 8 5 14 2 -2 -12 -3 16 20 18 27 -12 18 -6 5 11 6 4 -20 -20 -9 4 3 3 22 15 28 24 25 25 17 12 16 -14 8 -13 -13
15 -17 11 8 19 9 22 8 -4 -20 -20 10 -17 -12 23 21 14 25 20 5 -11 6 4 -20 -20 -10 -15 8 6 9 17 28 23 -2 18 12 -0 -8 -20 -20 10 6 21
10 -12 -20 -18 5 11 11 19 17 21 13 13 21 13 12 16 20 26 36 17 -17 -20 -19 -15 2 -6 -14 -20 -20 7 27 19 26 21 28 29 28 24 23 19 18 28 29
-9 -12 -11 -20 -20 -20 -2 17 24 6 30 36 12 26 13 24 27 34 44 9 16 -15 -13 -14 -9 -10 2 16 -14 -17 -17 18 22 3 18 22 27 32 26 28 31 29 29
-5 -20 -4 -20 -20 -20 -20 -20 -20 -18 2 25 13 26 29 27 30 38 38 29 21 12 14 17 20 29 15 14 6 -3 -14 6 21 23 12 20 21 24 32 26 26 28 20
4 0 6 4 -16 3 -20 -20 -20 -20 -7 8 19 22 22 33 38 30 13 27 20 19 -17 -20 6 20 10 10 21 -7 -8 2 -16 -16 -6 16 25 15 13 17 12 6 4

GFSMA_prec_radar_132.txt.gz
Reflectivity
-20 -20 -20 -20 -20 -20 -20 -20 -20 -20 -20 -20 8 -20 -20 4 -14 -19 -10 -14 -20 -20 -20 -20 -20 -20 -20 -20 -20 -3 18 14 -6 -16 -12 8 11 11 12 16 15 11 3
-20 8 6 -20 -20 -20 -20 -20 -12 -9 -20 -9 -4 -20 -20 -20 -20 -11 -20 -18 -12 -20 -20 -20 -20 -20 -20 -20 -20 -20 -20 3 13 1 -17 -6 2 14 -2 14 5 18 8
-19 6 -20 -20 -20 -20 -20 -20 -20 -20 -20 -13 -20 -3 -17 -20 -18 -20 -20 -20 -20 -20 -4 -20 -20 -20 -20 -20 -20 -20 -20 -20 -16 19 14 -16 -8 14 12 8 14 15 5
-20 12 6 -20 -20 -15 -2 -20 -20 -20 -20 1 -20 -9 -20 9 9 -19 -15 3 -18 -20 13 -18 -20 -20 -20 -20 -20 -20 -20 -20 1 16 -16 -20 -14 3 13 -6 -20 13 10
-20 -7 -5 -7 -20 6 6 -8 -20 -20 -20 -20 -20 -11 -20 -20 -20 -20 0 6 7 -7 -20 11 -20 -20 -20 -20 -20 -20 -20 -20 -20 -17 0 -4 13 -20 -4 -7 -6 4 6
-20 -20 -20 -20 8 -20 -12 -16 -20 10 -20 -20 -0 -20 -20 -20 -20 -20 -20 -20 -20 -20 -20 -20 -20 -20 -20 -20 -20 -20 -20 -17 -5 -20 -20 -17 -19 -20 -20 -3 -5 -1 12
-20 -20 3 -20 -20 -0 -20 -2 -20 -20 -20 -20 -20 5 -20 -20 -20 -20 -20 -20 -20 -20 9 -15 -20 -20 -20 -20 -20 -20 -20 6 14 13 -20 -20 -17 -20 -20 -20 4 -10 13
-20 -20 -6 -20 -20 -20 -11 -12 -14 -4 -1 9 -20 -20 -19 -20 -20 -20 -20 -20 -20 -20 -17 4 7 -20 -20 -20 -20 -20 -0 8 16 11 -20 -20 -12 -11 2 -5 -16 8 9
-20 -20 -20 -20 -20 -19 -20 -20 7 -17 -7 1 9 -20 -20 -20 -20 -20 -20 -20 -20 -20 -20 -20 4 -2 -20 -20 -20 -20 -20 -20 7 14 6 -20 -20 -20 -16 -14 -5 21 3
-20 -20 -20 -14 -5 -20 -10 -18 -20 -20 -4 -20 3 1 -20 -20 -20 -20 -20 -20 -20 -20 -20 -20 -20 -20 -20 -10 -20 -20 -20 -20 -19 6 22 6 -20 4 -18 -15 7 9 3
-20 -20 -20 -20 7 -20 -20 -11 6 -9 -12 -14 -6 -20 -19 -20 -20 -17 -20 -20 -20 -20 -20 -20 -20 -20 -20 -20 6 -20 -20 -20 -20 -20 15 19 9 6 -15 -10 27 6 7
-4 0 -11 -7 -16 4 -20 -20 -19 -20 11 -10 10 -20 -20 -20 17 5 -18 -20 -17 -8 5 -19 -20 -20 -20 -20 -20 -20 -20 -20 -0 -18 -4 13 2 14 10 -8 4 18 -19
30 31 32 21 8 -4 10 17 12 -19 -20 -20 21 -20 -20 -20 -20 5 -12 -20 -2 -20 -20 -20 -20 -20 -20 -20 -20 -20 -20 -20 -20 -20 -8 18 14 19 10 -2 -5 13 5
6 41 49 36 21 11 17 34 10 6 -18 -20 -18 -12 -11 -20 22 -1 -20 -20 -20 -20 -20 -20 -20 -20 -20 -20 -20 -20 -14 -20 -20 -20 -8 -4 13 19 28 19 9 11 1
35 45 38 27 18 15 9 5 17 8 20 19 -20 -20 -8 32 -15 -2 10 17 -16 15 -20 -20 -20 21 -20 -20 -20 -20 -20 -14 8 -20 -20 -20 13 25 26 26 0 -20 -20
42 42 39 29 23 14 -7 20 8 13 16 20 7 -4 -20 15 -7 31 29 21 -10 -20 -17 -20 -18 22 -15 -20 -20 -20 -20 -13 1 -5 -20 -7 17 25 26 5 8 -20 -20
29 35 29 25 23 28 17 16 -8 -2 19 5 -18 -5 -20 -1 34 32 27 24 -8 31 26 11 18 24 -20 -20 -20 -20 -20 -20 -5 -1 -20 -19 24 26 22 21 -0 -20 -20
38 30 25 10 1 9 18 12 17 10 17 15 24 14 14 27 -9 30 31 29 44 37 28 -17 3 24 -4 23 -20 -20 -20 -20 -4 9 -20 -11 16 27 19 28 18 3 -19
-20 -20 13 22 16 17 6 10 3 7 9 15 21 24 29 17 28 -3 25 23 37 27 23 23 -20 -15 5 -19 -14 -20 -20 -20 -20 6 -11 -20 12 32 30 27 26 30 24
-20 -20 -20 -9 -20 -20 -20 -20 1 15 15 -14 19 23 26 17 20 17 24 10 11 20 20 -0 -18 -19 -20 -20 -20 -20 -20 -20 -7 17 -7 -20 -20 20 30 32 28 29 29
-20 -20 -20 -20 -8 -9 -13 -20 -20 -20 -20 13 4 21 26 25 28 18 6 14 21 23 17 34 33 20 7 -20 -20 1 -20 -20 6 -18 -20 -15 -5 17 18 21 18 23 13
-20 -20 -20 -20 -20 28 35 31 19 35 12 -6 32 32 32 28 7 15 22 20 16 16 24 25 6 15 -2 -17 -20 -0 13 4 5 -10 -3 9 15 12 -20 7 24 14 23
-3 -20 -8 4 -17 1 10 6 26 23 17 29 22 26 35 39 32 27 26 29 25 25 25 22 28 26 9 2 3 27 28 -19 -20 -20 -20 -0 17 19 26 21 22 14 17
7 -5 1 -20 -19 -19 4 -4 -14 7 -17 -14 3 5 10 10 4 23 -13 20 27 28 31 7 30 11 36 29 32 19 24 23 -17 -20 -13 -8 19 4 5 16 21 21 23
-9 -0 2 -5 -20 -20 -20 1 4 -20 -20 -20 -20 -20 -20 -17 -18 -20 -20 -20 16 -16 -18 4 15 24 29 30 25 0 25 26 23 7 7 -20 -8 -1 9 3 5 17 -17
-20 -14 -6 1 -5 -20 -20 -20 -20 -20 -20 -20 -20 -20 4 1 -4 -20 -20 -20 -20 -20 -19 -20 -18 20 24 37 38 38 25 26 23 4 5 2 -13 -5 18 18 24 7 1

GFSMA_prec_radar_135.txt.gz
Reflectivity
-20 -20 -20 -20 -20 -20 -20 -20 -20 -20 -20 -20 -20 -20 -3 -20 -20 -20 -20 -20 -20 -20 -20 -20 -20 -20 -20 -20 -20 -19 23 -11 5 -3 0 -3 -17 16 14 16 13 17 13
-20 -20 -20 -20 -20 -20 -20 -20 -20 -20 -20 -20 -20 -20 -12 -15 -20 -20 -20 -20 -20 4 -17 -4 -20 -20 -20 -20 -20 -20 -20 -5 -20 -5 12 -17 -20 -5 12 14 13 12 16
-20 -20 -20 -20 -20 -20 -20 -20 -20 -8 -20 -20 -20 -20 -20 19 -20 -20 -20 -20 -3 9 -12 -20 -20 -20 -20 -20 -20 -20 -20 -20 -20 -11 12 12 -10 -20 13 13 15 8 18
-20 -20 -20 -20 -20 -20 -20 -20 -2 3 -20 -20 -20 -20 -20 -13 -20 -20 -1 -13 2 10 14 16 -20 -20 -20 -20 -20 -20 -20 -20 -13 -20 -20 8 0 22 4 15 12 13 7
-7 -20 -20 -20 -20 -20 -20 -20 -20 -11 -20 -20 -20 -20 -20 -20 -20 -2 -17 -20 -13 -12 -4 6 2 -20 -20 -20 -20 -8 -20 -20 -8 -20 -20 -20 3 -10 -20 -6 12 13 14
-12 10 -15 -20 -20 -20 -20 -20 -20 -20 -20 -20 6 -0 -20 -20 -20 -20 -20 7 -20 -20 -20 -15 -14 -10 -20 -20 -20 -14 -20 -20 -20 -20 21 -20 -20 0 -20 -6 10 9 9
7 6 6 -20 -20 -20 -20 -20 -20 -20 -20 -20 -20 -20 -20 -20 -20 -20 -20 -20 -20 -20 -20 -16 2 -20 -20 -20 -20 -20 -6 -9 5 12 -0 -20 -12 -20 -3 -3 8 3 2
32 11 -2 -8 -20 -20 -20 3 5 -20 -20 -20 -20 -20 -20 -20 -20 -20 -20 -20 -20 -20 -20 -20 -20 -20 -20 -20 -20 -20 -20 9 17 20 20 2 -20 -20 -20 4 -20 -9 5
35 -10 -20 -20 -20 -20 -19 -20 -20 -15 -16 -16 -20 -20 -20 -20 -20 -20 -20 -20 -20 -20 -20 -20 -20 -20 -20 -20 -20 -20 -20 -20 -14 23 25 -20 -20 -20 -20 -20 -20 -9 2
35 16 -19 -20 -20 -20 -20 -20 -20 -20 -20 -20 -20 -20 -20 -20 -20 -20 -20 -20 -20 -20 -20 -20 -20 -20 -20 -20 -20 -20 -20 -20 -20 -20 9 21 -20 -20 -20 -20 -20 -18 -19
12 34 16 -15 -20 -20 -20 -20 -20 -20 -20 -17 -20 -20 -20 -20 -20 -20 -20 -20 -20 -20 -20 -20 -20 -20 -20 -20 -20 -20 -20 -20 -20 -20 -20 7 12 -20 -20 -20 5 -19 -19
12 34 31 11 -9 -14 -20 -20 -20 -20 -16 -20 -20 -20 -20 -20 -20 -20 -20 -20 -20 -20 -15 -20 -20 -20 -20 -20 -20 -20 -20 -20 -20 -20 -20 -19 10 3 -15 3 11 11 -6
-13 28 48 33 26 14 1 -14 -16 -5 -10 -17 -20 -20 -20 -20 -20 -20 -20 -20 -20 -20 -20 -20 -20 -20 -20 -20 -20 -20 -20 -20 -20 -20 -20 -20 8 7 -20 15 14 -9 -15
-20 12 49 42 18 9 26 21 24 -13 1 2 -14 -19 -15 -20 -20 -20 -20 21 -18 22 -5 -20 -20 -20 1 -20 -20 -20 -20 -20 -20 -20 -20 -20 -20 13 7 3 18 19 5
35 28 38 52 29 10 34 36 19 35 34 33 32 12 -20 -10 -20 -20 -20 -19 30 13 15 26 24 -9 -20 -20 -20 -20 -20 -19 2 5 -18 -20 -20 -8 12 23 25 22 13
-8 14 41 43 27 17 39 51 33 36 34 32 23 33 -4 33 -6 -6 32 31 25 25 6 -10 18 -19 -20 -20 -20 -6 -17 -13 2 1 6 5 -20 -20 10 24 31 26 16
22 38 39 30 25 34 34 32 24 26 18 15 11 17 24 26 17 33 33 33 32 24 16 -15 22 8 -2 10 -1 -18 -20 -20 -14 9 5 9 0 -20 8 24 10 19 22
28 26 16 30 39 36 35 26 27 23 25 16 10 16 19 7 -13 17 32 31 27 30 26 37 14 31 25 16 25 -20 -20 4 -6 -11 11 9 7 6 -8 -19 4 16 23
13 27 1 22 35 32 34 22 24 32 22 6 -4 7 14 4 11 18 13 10 27 29 25 25 40 12 26 22 8 -20 -20 -20 -20 0 9 9 4 2 -20 -20 26 24 23
-18 5 24 25 20 29 34 12 -0 -2 -4 6 15 12 1 -10 5 25 15 21 5 22 18 27 31 29 25 10 31 14 13 -7 -20 -20 -20 -20 -9 -1 -3 -8 18 25 29
-20 -13 32 32 32 31 28 10 -0 -20 -20 -20 -20 -9 -11 -11 23 19 6 24 17 14 23 6 6 15 19 -5 4 32 37 18 -10 -8 -20 -20 -19 -12 -14 7 10 16 25
-20 -20 -20 -7 1 -20 -5 -12 0 -20 -20 -13 3 -1 7 30 11 3 -1 -0 21 33 43 42 25 17 4 37 29 8 16 24 18 -13 -20 -20 -16 8 -16 -20 9 11 25
-12 -10 -19 -20 -20 -20 -20 -20 -20 -20 -20 -15 1 2 -20 -0 -20 -19 15 23 21 34 25 16 31 23 30 24 32 12 35 4 0 -20 1 15 -17 -20 -20 -10 6 10 -7
-1 -19 -17 -19 -17 -19 -20 -20 -20 -20 -20 -20 -20 -20 -20 -14 -20 -20 -14 -12 4 3 14 26 28 20 14 7 12 25 22 31 13 24 24 -15 -15 -20 -18 -8 17 12 16
-18 -2 -20 -20 -20 -20 -10 -20 -20 -20 -20 -20 -20 -20 -20 -20 4 -20 -20 -16 1 -7 -15 -5 2 -18 -20 -12 -8 -0 -20 15 31 27 -0 -19 -6 -20 -20 -7 5 12 0
-20 -20 -20 -20 -20 -20 -20 -20 -20 -20 -20 -20 -20 -20 -20 -3 -6 4 -20 -20 -20 -20 -8 -0 -6 -20 -20 -20 -7 -18 -7 8 37 31 12 -17 3 13 4 1 3 18 3

GFSMA_prec_radar_141.txt.gz
Reflectivity
-17 8 -20 -20 -20 -20 -20 -20 -20 -20 -20 -20 -20 -20 -20 -20 -20 -20 -20 -20 -20 -20 -14 8 -20 -20 -20 -20 -20 -20 8 -16 3 25 0 -20 -20 -20 -20 -20 -13 10 10
1 10 14 -18 -20 -20 -20 -20 -20 -20 -20 -20 -20 -20 -20 -20 -20 -20 -20 -20 -20 -20 -20 10 -16 -20 -20 -20 -20 -2 -20 -20 -9 16 6 -20 -20 -3 -19 -20 -20 -9 10
30 18 8 10 -20 -20 -20 -20 -20 -20 -20 -20 -20 -20 -20 -20 -20 -20 -20 -20 -20 -8 -3 -20 -20 -20 -20 23 -20 -20 -20 -20 -19 -20 -13 -20 -20 -16 -9 -20 -20 -20 -2
19 26 9 19 -11 3 -20 -20 -20 -20 -20 -20 -20 -20 -20 -20 -20 -20 -20 -20 -18 -20 -5 -20 -20 -20 -20 -20 -20 -20 -20 -20 6 -20 -20 -20 -20 -20 -20 -20 -20 -20 -20
21 30 33 30 32 -15 -20 -20 -20 -20 -20 -20 -20 -20 -20 -20 -20 -20 -20 -20 -18 9 0 -9 -6 -20 -20 -20 -20 -20 -14 -20 -20 -20 -20 -1 -0 -20 -20 -20 -20 -20 -19
-18 23 28 34 10 8 -16 -12 -18 -20 -20 -20 -20 -20 -20 -5 3 -8 -20 -20 -20 -19 3 -19 -17 -20 -20 -20 -20 -9 -20 -20 -20 -20 9 -20 -20 -20 -20 -20 -20 -20 -3
-20 -20 25 9 29 27 18 -0 -7 -5 13 -20 -20 -20 -20 10 7 -20 -20 -20 -20 -20 -20 -20 -20 -20 -20 -20 -20 -20 -20 -20 -20 3 -20 -20 -20 -20 -20 -20 -20 -20 -20
-20 2 13 19 41 36 30 28 5 -7 14 11 -2 -20 14 -17 12 -0 -20 -20 -20 -20 -20 -20 -20 -20 -20 -20 -20 -20 -20 11 11 -20 -1 30 -2 -20 -20 -20 -20 -20 -10
-20 -20 -20 -20 -6 46 45 36 22 15 0 18 14 -12 -4 -7 -20 -20 -20 -20 -20 -20 -20 -20 -20 -20 -20 -20 -20 -20 -20 -20 7 4 -20 -18 -20 -14 -20 -20 -8 2 1
-20 -20 -20 -20 -10 18 32 32 29 30 12 3 16 9 -20 -20 -20 -20 -20 -20 -20 -20 -20 -20 -20 -20 -20 -20 -20 -20 -20 -20 -20 -20 8 -19 -7 -20 7 -20 -18 10 -1
-20 -20 -20 -20 -20 26 16 15 30 23 14 18 -12 4 -19 -20 -20 -20 -20 -20 -20 -20 -20 -20 -20 -20 -20 -20 -20 -20 -20 -20 -20 -20 -20 7 -20 -20 20 -18 -20 12 9
2 -18 -19 -15 -17 -20 37 23 32 37 29 15 -12 10 -20 -20 -20 -20 -20 -20 -20 -20 -20 -20 -20 -20 -20 -20 -20 -20 -20 -20 -20 -20 -20 -20 12 -16 -3 21 -20 -2 -14
19 24 -20 -20 -20 -17 32 37 36 46 46 32 28 18 31 -19 -17 -20 -11 -20 -20 -20 -20 -20 -20 -20 -20 -20 -20 -20 -20 -20 11 -7 25 -20 -17 10 -19 -5 -3 -13 21
18 4 6 -20 -20 -20 -16 16 46 23 45 42 30 30 28 32 7 8 2 28 22 -20 -20 -20 -20 -20 -20 -20 -20 25 -20 -20 -12 10 -8 24 28 -20 -20 9 17 25 20
16 25 21 -20 -20 -20 -20 -10 25 0 24 33 47 29 29 13 14 12 16 26 21 -20 -8 -20 -20 -20 -20 -20 -20 -7 16 10 20 10 15 -14 21 22 -20 -20 -20 5 20
18 15 6 -20 -20 -20 -20 14 18 19 12 31 37 31 37 28 32 26 21 14 14 25 8 -10 -9 -13 24 21 13 15 -20 8 23 -5 4 -1 24 9 -20 -20 -20 -12 -1
33 30 22 14 -12 -2 -19 24 31 23 6 23 20 33 43 28 20 21 12 21 41 25 25 3 7 -14 -19 -8 -18 -20 -15 -20 27 9 5 2 7 20 18 14 -20 -20 6
37 33 29 25 17 21 -20 8 40 29 2 7 20 26 18 34 34 25 23 37 47 27 21 19 -10 3 -1 -4 -20 -20 -12 21 38 -18 -9 1 2 7 18 20 14 1 -19
34 38 30 28 -3 -20 -20 -2 15 22 27 35 27 31 41 35 37 34 33 35 42 24 15 -11 17 -11 -12 -4 -2 -5 -11 -12 -20 -20 -18 -4 17 18 -2 4 16 -7 7
22 24 38 34 32 19 -16 12 33 32 29 33 33 36 40 37 34 37 39 33 35 28 20 3 -20 -18 -20 -20 -20 -20 -20 -20 -20 -8 -10 7 22 27 8 22 3 -1 -20
25 40 30 24 24 17 1 1 15 28 34 30 27 31 34 36 33 26 20 25 22 15 11 5 -8 -20 -20 -20 -20 -20 -20 -20 -20 13 -18 27 4 -4 23 16 10 10 3
-12 13 21 14 2 -20 -9 -9 5 7 -5 -9 7 15 13 14 15 14 13 18 12 1 -4 -20 -4 -10 -20 -20 -20 -20 -20 -20 -20 -15 13 25 22 32 21 2 18 19 -2
8 -0 -1 3 -9 -20 -20 -20 -20 -20 -9 -6 1 6 -5 3 11 4 -11 -20 -20 -14 0 -10 -18 -20 -15 -5 -19 -20 -20 -20 -20 -20 -20 -3 11 13 22 26 10 10 9
6 2 -1 -20 -20 -20 -20 -20 -20 -20 -14 -20 -20 -5 -20 -20 -20 -20 -20 -20 -20 -20 -19 -20 -20 -17 -20 -20 -18 -3 -20 -8 -20 -20 -20 -20 -20 -20 -10 18 22 26 25
-20 -20 -20 -20 -20 -20 -20 -20 -20 -20 -20 -20 -20 -20 -20 -20 -20 -17 -20 -20 -20 -20 -20 -20 -20 -20 -20 -20 -20 -20 -20 -20 -20 -20 -20 -20 -20 -20 -20 -20 -10 26 25
-20 -20 -20 -20 -20 -20 -20 -20 -20 -20 -20 -20 -20 -20 -20 -20 -20 -4 -20 -20 -19 -11 -20 -20 -20 -20 -20 -20 -20 -20 -20 -20 -20 -20 -20 -20 -20 -20 -20 -20 -20 -20 24

GFSMA_prec_radar_144.txt.gz
Reflectivity
17 15 25 17 2 -19 -9 -6 -20 -20 -20 -20 -20 -20 -20 -20 -20 -20 -20 -20 -20 -20 -20 8 12 -20 -20 -20 -20 -20 -7 -3 9 20 19 -4 -20 -20 -20 -19 -20 1 -1
-7 21 29 24 16 1 -17 10 -3 -20 -20 -20 -20 -20 -20 -20 -20 -20 -20 -20 -20 -20 -20 -20 5 -13 -20 -20 -20 -20 -20 20 -20 7 16 18 21 -19 -19 -9 -20 -14 -18
-14 13 9 31 8 -5 10 3 -20 -5 -20 -20 -20 -20 -20 -20 -20 -20 -20 -20 -20 -20 -20 -20 -20 -20 8 28 -20 -20 -20 -20 -20 -20 -18 -18 -20 -20 -20 -17 -20 -20 4
-20 -20 -6 23 29 6 -17 -6 -15 14 -11 -20 -20 -20 -20 -20 -20 -20 -20 -20 -20 -20 -12 10 6 -20 -20 -20 -18 -20 -20 -20 -20 -20 -20 -20 -20 -20 -20 -20 0 -18 -20
-20 -11 -20 -15 22 34 30 -5 -14 -16 11 -19 -20 -20 -20 -20 -20 -20 -20 -20 -20 -20 -20 -20 -20 -20 -20 -5 -20 -9 -20 -20 -20 -20 -20 -20 -20 -20 -20 -20 -20 -20 -20
-14 -20 -20 -20 5 28 33 6 -18 -20 -8 -20 -20 -20 -20 -20 -20 -20 -20 -9 -20 -9 -15 -20 -11 -13 -19 -20 -20 -20 -20 -20 -20 -20 -20 -20 -20 -20 -20 -20 -20 -20 -20
-20 -20 -20 -20 -20 -17 23 34 15 23 5 -4 17 7 -20 -20 -20 -20 12 14 -20 -20 13 10 -20 -20 -20 -20 -20 -5 -20 -20 -7 19 -20 -20 -20 -20 -20 -20 -20 -20 -20
-20 -19 1 -5 6 -1 3 -16 29 34 8 14 -17 -20 -10 -20 -20 -20 -13 10 -20 -17 -1 -19 -20 -20 -20 -20 -20 -20 -20 31 -17 22 -1 -20 -20 -20 -20 -20 -20 -20 -20
-20 -20 -6 -20 -20 -20 -20 4 -8 44 42 22 -0 3 18 -19 -18 -20 -20 -20 -20 -20 -20 -20 -20 -20 -20 -20 -20 -20 -20 -20 -16 13 -16 -19 2 -20 -20 -20 -20 -20 -9
-13 -20 -19 -20 -20 -20 -20 -16 -5 29 48 36 29 12 24 -12 -12 -20 -20 -20 -20 -20 -20 -20 -20 -20 -20 -20 -20 -20 -20 -20 -20 -4 -13 24 15 13 -20 -20 -20 -20 8
12 -0 -4 -13 -20 3 -19 -20 -20 -8 16 25 36 2 27 10 -6 -20 -20 -20 -20 -20 -20 -20 -20 -20 -20 -20 -20 -20 -20 -20 -20 -20 -20 -20 17 13 6 -20 -20 -20 1
11 -15 2 13 -19 -18 6 -20 -8 -18 -13 20 15 24 15 14 -10 -3 -20 -20 -20 -20 -20 -20 -20 -20 -20 -20 -20 -20 -20 -20 -20 -20 -20 -19 -20 4 12 -20 -20 -20 -20
-17 -11 -20 -7 10 -5 -6 -20 -20 -20 -13 4 35 30 26 13 6 5 -20 -20 -20 -20 -20 -20 -20 -20 -20 -20 -20 -20 -20 -20 -20 14 10 7 23 8 -20 8 -20 -20 -20
-11 -20 -19 -20 -2 24 16 -9 -20 -20 -13 17 34 29 27 27 28 25 29 25 23 -20 -17 -20 -20 -20 -20 -20 -20 -20 -20 -5 -20 -20 -20 -20 -20 -20 21 -10 24 -20 -20
-10 -12 -2 17 -3 19 -1 -14 18 -20 -2 2 32 30 31 40 35 34 32 28 13 1 -18 -11 -10 -17 -20 -20 -20 -20 -20 -8 -2 -20 -4 -20 -15 -20 -20 16 -20 16 -20
-6 -1 24 15 20 26 21 -18 -20 -20 -16 7 22 36 40 45 43 34 34 30 27 28 0 -0 8 -8 -16 -15 -14 -12 15 -4 -3 8 7 -10 -15 -20 -20 18 -10 -20 -0
1 2 12 17 30 27 28 24 21 -20 -20 -11 5 18 35 40 43 39 35 31 26 22 1 5 14 30 30 2 -12 -18 -17 -20 -12 9 4 3 8 -3 -20 -11 3 21 7
8 6 27 34 33 31 23 24 12 20 22 16 38 32 25 20 29 32 40 36 35 35 23 21 16 24 48 22 14 16 -20 -8 4 17 6 4 5 5 1 1 -17 10 21
32 30 30 30 36 38 36 27 21 18 -3 -2 25 34 32 37 34 35 34 35 37 34 32 23 14 35 45 25 -1 -18 3 -20 -20 11 5 -20 -1 5 3 8 -0 -20 16
30 33 36 37 35 28 33 33 28 26 21 26 30 25 30 35 32 36 37 34 31 32 32 31 22 32 39 37 23 22 4 -20 -20 -20 -8 -20 -20 -1 8 3 6 14 -1
20 30 30 37 38 37 31 23 21 27 9 -6 -0 -8 12 24 29 27 20 24 32 37 35 21 8 31 35 33 31 11 -3 -20 -20 -20 -20 -20 -20 -20 -10 8 11 21 16
-12 16 17 20 27 26 28 19 15 10 6 -1 -20 -11 -4 5 15 17 18 6 -1 -1 16 19 -5 -13 13 17 10 -20 -6 -20 -20 -20 -20 -20 -20 -20 -20 -1 19 26 16
-20 -20 -3 7 2 14 17 7 -2 5 -0 -19 -20 -20 -0 -16 -20 -15 -4 11 11 10 6 2 -5 1 -2 -0 -2 -8 -7 2 -11 -20 -20 -20 -20 -20 -20 -18 -3 -5 7
1 -20 -20 -20 -14 -8 -19 -4 -19 -20 -20 -20 -20 -20 -20 -20 -20 -20 -20 -20 -18 -15 -0 8 4 -5 -14 -12 -7 -5 2 -0 -14 -14 -20 -10 -20 -20 -20 -20 -20 -20 -9
-10 -18 -20 -20 -20 -20 -6 -9 -20 -20 -20 -20 -20 -20 -20 -20 -20 -20 -17 -20 -20 -20 -20 -20 -20 -20 -20 -7 -18 -19 -13 -20 -20 -20 -20 -20 -20 -20 -20 -20 -20 -20 -20
-20 -20 -20 -20 -20 -20 -20 -20 -20 -20 -20 -20 -20 -20 -20 -20 -7 -7 -20 -20 -20 -20 -20 -20 -20 -20 -20 -20 -20 -20 -20 -3 -20 -19 -20 -20 -19 -20 -20 -20 -20 -20 -20

GFSMA_prec_radar_150.txt.gz
Reflectivity
-20 -20 -20 -20 -20 23 8 -13 -3 3 21 -16 -12 -20 -20 -20 -20 -20 -20 -20 -20 -20 -20 -7 -20 -20 -20 -20 -20 -20 -20 -20 -20 -20 -14 -20 -17 6 -3 -13 -2 -20 -20
-20 -20 -20 -20 -20 -20 17 22 -13 4 -6 21 14 -20 -20 -20 -20 -20 -20 -20 -20 -20 -20 -20 -8 -20 -20 -20 -20 -20 -20 -20 -20 -20 -20 -20 4 17 6 -7 -20 -20 -20
-20 -20 -20 -20 -20 -20 -20 -19 27 23 5 4 24 3 -20 -20 -20 -20 -20 -20 -20 -20 -20 -20 -20 -20 -20 -17 -20 -20 -20 -20 -20 -20 -20 -17 -20 -20 -19 -15 -0 -15 -1
-20 -20 -20 -20 -20 -20 -20 -20 -18 20 18 8 3 25 19 -20 -20 -20 -20 -20 -20 -20 -20 -20 -20 -20 -20 -20 -20 -20 -20 -20 -20 -20 -20 -20 -20 -20 -20 -20 -20 -20 -20
-20 -20 -20 -20 -20 -20 -20 -20 -20 1 19 17 0 -15 26 -14 -20 -20 -20 -20 -20 -20 -20 -20 -20 -20 -20 -20 -20 -20 -20 -20 -20 -20 -20 -20 -20 -20 -20 -20 -20 -20 -20
-20 -20 -20 -20 -3 -20 -20 -20 -20 -20 -7 22 18 5 9 -15 -0 -20 -20 -20 -20 -20 -20 -20 -20 -20 -20 -20 -20 -20 -20 -20 -20 -20 -20 -20 -10 -20 -20 -20 -20 -20 -20
-20 -20 -20 -20 -20 8 -20 -20 -20 -20 -20 -1 27 17 14 28 27 20 -20 -20 -20 -20 1 -20 -20 -20 -20 -20 -20 -20 -20 -20 -20 -1 -20 -20 -20 -20 -20 -20 -20 -20 -20
3 -20 -0 -17 -7 1 -10 -1 -1 -13 -20 -20 6 17 28 35 31 23 20 22 17 -20 -20 -16 21 -20 -20 -20 -20 -20 -20 -20 -17 -20 -20 -20 -20 -20 -20 -20 -20 -20 -20
-7 6 5 9 8 4 -7 -1 8 1 3 -20 -7 4 30 -10 6 39 33 17 22 22 1 -20 19 18 -20 -20 -20 -20 -20 -20 -20 -7 -16 20 -20 -20 -20 -20 -20 -20 -20
-14 -3 2 -6 5 11 14 3 -7 1 6 4 -11 1 2 20 -7 25 40 31 18 22 19 14 20 8 25 -20 -20 -20 -20 -20 -20 -20 -14 -20 -5 -20 -20 -20 -20 -20 -20
-5 1 4 -8 0 3 -19 -20 2 17 11 4 -20 2 -18 9 -17 -9 17 33 29 22 22 19 -11 20 -6 -20 -20 -20 -20 -20 -20 -20 -20 -20 12 -20 -20 -20 -20 -20 -20
-2 -20 -13 1 5 7 8 4 2 -4 8 14 -19 -17 8 13 -1 -15 8 28 28 22 12 20 19 19 23 -17 -20 -19 -20 -20 -20 -20 -20 -20 -20 -20 -20 -20 -20 -20 -20
-6 -20 -5 5 5 3 4 1 -9 7 2 16 -7 -1 24 21 15 9 -20 38 39 27 27 21 -5 22 -20 5 -20 -2 -20 -20 -20 -20 -20 -20 -20 -20 -20 -20 -20 -20 -20
11 5 2 5 2 3 -1 -2 10 -15 10 17 10 4 14 25 23 -3 -20 -5 19 26 28 13 -9 23 -20 6 -2 -4 22 21 -3 -3 -20 12 -20 -20 -20 -16 17 21 24
12 9 1 3 0 -3 -20 -13 -4 -20 -1 -16 13 -13 20 24 25 20 22 26 9 22 11 26 28 4 16 25 19 -20 13 9 8 18 20 19 19 -20 -20 -20 -1 14 -20
7 6 6 1 1 -8 -13 -18 -20 11 22 12 -12 -2 11 2 15 2 21 27 -0 28 26 27 32 15 8 24 12 -1 12 19 19 13 13 9 1 6 4 9 3 -3 17
4 11 5 -9 -3 -1 -1 3 5 19 28 34 2 27 2 28 18 14 24 14 29 21 27 36 29 22 27 19 12 19 12 25 0 16 12 18 13 9 -7 17 13 20 12
-6 7 -2 6 2 -9 -5 6 16 35 37 13 17 5 2 15 24 20 -10 15 22 35 -8 -1 36 38 37 16 14 16 7 11 8 15 8 8 10 6 14 7 -6 -14 -20
3 0 1 -12 13 13 18 21 18 18 14 30 -2 4 14 9 13 24 17 15 -14 -20 -18 -10 13 13 43 34 30 13 11 18 7 22 15 15 5 -11 18 17 -20 -20 -12
-9 1 7 9 4 4 3 16 26 26 26 24 24 17 19 29 12 20 21 28 25 8 2 24 34 32 40 42 34 31 29 11 19 11 20 20 24 18 -3 22 20 7 16
-20 -19 -3 4 10 11 14 10 16 22 19 22 28 31 25 24 27 27 29 30 31 30 28 36 36 37 32 35 35 37 37 35 35 27 12 3 -1 5 19 38 17 15 -4
-20 -20 -19 7 11 12 15 18 14 21 23 20 26 24 26 32 28 31 30 24 22 19 26 33 32 33 34 28 29 31 30 34 39 29 23 10 3 6 23 29 34 20 -20
-20 -20 -20 -20 -20 5 14 12 10 9 17 20 20 22 23 21 22 23 23 19 17 7 11 18 19 18 18 18 17 18 19 20 20 20 27 29 31 20 27 9 12 2 -16
-20 -20 -20 -20 -20 -20 -17 10 8 -16 7 14 14 16 17 11 14 14 12 9 9 7 14 8 10 -1 2 3 7 11 9 14 9 6 13 12 16 17 25 22 24 8 -20
-20 -20 -20 -20 -20 -20 -20 -20 -18 -1 -20 -5 0 -1 5 13 -12 -1 6 -14 -6 1 3 8 -9 -20 -8 2 -4 -4 -13 -4 -12 2 11 12 8 10 15 24 15 7 -7
-20 -20 -20 -20 -20 -20 -20 -20 -20 -20 -20 -20 -20 -20 -20 -20 -16 -7 -20 -20 -20 -20 -13 -2 -8 -20 -20 -20 -20 -3 -3 3 -1 -7 -1 -1 10 11 14 16 18 14 7

GFSMA_prec_radar_153.txt.gz
Reflectivity
-20 -20 -20 -20 -20 -20 -20 11 2 31 19 -20 -20 3 -18 -20 -20 -20 -20 -20 -20 -20 -20 -20 -20 -20 -20 -20 -20 -20 -20 -20 -20 -20 -20 -20 -20 -20 -20 -20 -20 -20 -20
-20 -20 -20 -20 -20 -20 -20 -20 -20 -11 29 30 10 -20 -16 -18 -1 -18 -20 -20 -20 -20 -20 -20 -20 -20 -20 -20 -20 -20 -20 -20 -20 -20 -20 13 -20 -20 14 3 -20 -18 10
-20 -20 -20 -20 -20 -20 -20 -20 -20 -20 5 0 12 0 -20 -20 -20 14 -17 -20 -20 -20 -20 -20 -20 -20 -20 -20 -20 -20 -20 -20 -20 -20 -20 -20 -20 -20 -10 13 -8 -20 -20
-20 -20 -20 -20 -20 -20 -20 -20 -20 -20 -20 14 23 14 29 -20 -20 -20 -20 -20 -20 -20 -20 -20 -20 -13 -20 -20 -20 -20 -20 -20 -20 -20 -20 -20 -20 -20 -20 -5 5 -3 9
-20 -20 -20 -20 -20 -20 -20 -20 -20 -20 -20 -13 11 23 29 30 6 -20 -5 -14 -20 -16 -20 -20 -20 -20 -20 -18 -20 -20 -20 -20 -20 -20 -20 -20 -20 -20 -20 -15 -20 -20 -20
-20 -20 -20 -11 -20 -17 -20 -20 -20 -20 -20 -20 -17 -8 22 8 30 16 -20 -20 -20 -20 -20 -20 -20 -20 -20 -7 -20 3 -20 -20 -20 -20 -20 -20 -20 -20 -20 -20 -20 -20 -20
-20 -4 3 5 -1 -20 -15 -12 -20 -20 -20 -20 -20 6 -20 25 -5 32 3 -20 -20 -20 -10 -20 24 -20 -20 -20 -20 -20 -20 -20 -20 -20 -20 -20 -20 -20 -20 -20 -20 -20 -20
-20 -20 5 6 -8 1 9 4 -20 -20 -4 -20 -0 15 12 -18 13 -19 29 27 -13 -20 -3 -20 -20 -20 -7 -20 -20 -20 -20 -20 -20 -20 -20 -20 -20 -20 -20 -20 -20 -20 -20
-20 -20 2 3 3 1 5 8 9 -12 -11 -20 -20 10 7 -12 -13 22 6 5 37 28 -4 19 -2 -20 -6 -11 -20 -20 -20 -20 -20 -20 -20 -20 -20 -20 -20 -20 -20 -20 -20
-20 -3 5 -5 -0 1 3 -0 -19 15 11 -12 -17 -20 2 -5 15 5 -7 33 37 16 -7 6 27 7 23 -11 20 -18 -20 -20 -20 -2 -20 1 -20 -20 -20 -20 -20 -20 -20
-19 -4 3 1 4 6 8 11 10 -18 3 11 9 -3 -20 13 -20 14 15 13 7 21 5 -4 17 28 26 -4 -20 5 -17 -20 -20 -20 -20 -15 -19 -20 -20 -20 -20 -20 -20
-2 4 -2 4 0 6 6 3 -0 -2 12 12 -20 -14 7 -6 9 5 12 18 18 -20 -20 -19 -13 21 22 6 -10 -20 -13 -17 4 -20 -20 -20 10 -20 -20 -20 -20 -20 -20
7 8 5 3 2 2 -4 1 -6 -6 11 13 15 10 -20 -16 1 -9 21 -17 21 6 -20 -20 -9 6 12 13 -4 -20 -18 -20 -20 -2 -20 -20 14 15 -1 6 -20 -20 -20
7 9 7 5 4 -20 5 1 -4 -11 -3 -10 11 8 12 -9 7 17 21 -9 22 -20 6 -20 -14 -18 30 32 29 11 3 -15 -7 33 -14 17 -20 -17 -7 16 5 -15 -20
5 6 4 6 5 -1 -20 1 2 -17 -14 -14 -19 20 0 18 16 -20 24 26 25 9 7 7 33 36 36 33 28 32 30 25 -9 -0 6 22 11 -3 -20 -20 -20 -20 -20
-3 0 5 5 6 2 5 -1 -19 -9 -20 -20 -14 18 -4 15 -20 -16 36 13 28 28 25 35 24 14 20 24 32 22 10 7 10 15 4 13 8 12 9 21 13 9 -7
-14 -11 -4 5 5 4 2 3 -5 5 -10 -20 18 8 3 14 -4 11 -4 16 13 22 25 14 22 15 17 22 5 26 20 25 20 10 13 15 7 11 17 13 14 17 16
-2 -3 -20 -17 -7 6 2 1 7 9 4 -8 13 18 1 26 -12 16 -7 -7 17 10 24 5 36 21 7 6 33 37 21 28 18 17 23 18 18 19 20 18 14 9 -1
-20 -20 0 -1 -0 5 -4 15 20 15 14 13 17 35 8 26 15 19 35 31 31 21 31 23 33 32 40 18 10 35 42 27 26 26 6 21 16 18 16 17 17 13 8
-20 -20 -20 -4 -7 -5 -16 4 4 6 8 19 28 22 28 21 11 20 11 21 17 29 14 27 33 34 40 41 22 28 16 25 36 17 23 16 20 12 17 22 19 14 9
-20 -20 -20 -20 -11 -20 -20 -10 -14 3 12 14 18 25 17 27 23 19 11 24 19 17 23 28 30 22 23 16 9 25 27 35 44 41 37 19 14 -2 1 9 24 21 18
-20 -20 -20 -20 -20 -20 -20 -10 3 0 8 15 18 13 14 22 4 20 26 21 8 15 20 18 25 31 23 14 12 22 28 33 30 35 30 29 41 30 38 16 25 22 15
-20 -20 -20 -20 -20 -20 -19 -6 3 -2 7 7 12 15 15 15 17 15 17 19 22 21 23 21 20 30 22 24 25 24 24 25 24 28 33 30 26 27 23 37 37 26 26
-20 -20 -20 -20 -20 -20 -20 -20 -6 3 -2 3 3 11 13 13 14 15 16 19 21 20 20 19 15 12 13 18 18 19 20 20 21 19 20 18 19 24 24 26 26 21 19
-20 -20 -20 -20 -20 -20 -20 -20 -20 -20 -0 -4 -4 8 4 10 12 9 10 9 14 17 17 17 17 13 11 3 11 16 16 15 13 13 13 13 14 15 14 16 14 9 10
-20 -20 -20 -20 -20 -20 -20 -20 -20 -20 -20 -20 -20 -20 -20 -20 -20 9 5 6 5 11 12 1 4 1 -2 4 2 -1 7 5 3 8 10 7 8 9 10 9 6 3 3

GFSMA_prec_radar_156.txt.gz
Reflectivity
-20 -20 -20 -20 -20 -20 -20 -20 -20 -3 -2 15 -10 30 12 -3 -16 28 -20 -18 -20 -20 -20 -20 -20 -20 -20 -20 -20 -20 -20 -20 -20 -20 -20 -20 -20 -20 -20 -20 -20 -18 -20
-20 -20 -20 -20 -20 -20 -20 -20 -20 -19 -20 -20 -8 -20 -7 25 16 -20 -20 -20 -20 -20 -20 -20 -20 -20 -20 -20 -20 -20 -20 -20 -20 -20 -20 -20 -20 -20 -20 -20 -5 -20 -20
-20 -20 -20 -20 -20 -20 -20 -20 -20 -20 -20 -20 -20 -1 3 -19 -2 33 -20 -20 -20 -19 -20 -20 -20 -20 -20 -20 -20 -20 -20 -20 -20 -20 -20 -20 -20 -20 -20 1 5 -20 -20
-20 -20 -20 -20 -20 -20 -20 -20 -20 -20 -20 -20 -20 -19 -0 15 -4 -8 19 12 -20 -20 -19 -20 -20 -20 -20 -20 -20 -20 -20 -20 -20 -20 -20 -20 -20 -20 -20 -20 -20 11 -13
-20 -20 -20 -20 -20 -20 -20 -20 -20 -20 -20 -20 -20 -3 -20 -9 -20 27 4 18 10 -20 -20 -20 -20 -20 -20 -19 -20 -20 -20 -20 -20 -20 -20 -20 -20 -20 -20 -20 -20 -20 7
-20 -20 -20 -20 -3 -15 -20 -20 -20 -20 -20 -20 -20 -20 -19 -18 -4 -17 -12 -0 33 31 -20 -20 -20 -20 -20 -20 -17 -20 -20 -20 -20 -20 -20 -20 -20 -20 -20 -20 -20 -20 -20
-20 -20 -20 -16 -13 -20 -4 -20 -13 -3 -20 -20 -20 -20 -20 -20 -20 -20 -20 -15 31 19 28 -20 -20 -20 -20 -20 -20 -20 -20 -20 -20 -20 -20 -20 -20 -20 -20 -20 -20 -20 -20
-20 -20 -20 -20 -15 -1 -4 -1 10 7 -3 -20 -17 -10 2 -20 -20 -20 -20 -6 -6 20 32 23 -19 4 -20 -20 -20 -20 -20 -19 -20 -20 -20 -20 -20 -20 -20 -20 -20 -20 -20
-20 -11 -20 -5 -15 -20 -8 -14 1 -9 1 -5 -19 7 14 -14 -20 0 -20 -20 -20 -20 21 41 1 -4 10 -19 -20 -20 -20 -20 -19 3 -20 -20 -20 -20 -20 -20 -20 -20 -20
-20 -20 3 -15 -4 -6 -16 -13 6 4 17 3 -15 -20 -20 1 -20 10 9 -20 -20 -20 23 38 47 29 21 -20 -20 -20 -20 -20 -20 -20 -13 -20 -20 -20 -20 -20 -20 -20 -20
-20 -20 -7 -20 -19 2 -6 -20 -20 -14 8 15 9 -20 -20 -20 -20 -11 -9 -17 21 -20 5 28 46 42 35 33 -20 -15 -12 -18 -20 0 -20 19 -20 -20 -20 -20 -20 -20 -20
-2 4 3 -2 1 1 1 -14 12 1 -19 6 10 16 -12 -20 -20 -5 6 -11 -20 -20 -20 -8 13 17 27 34 -10 -20 -8 -18 12 -5 -20 -20 -20 -20 -20 -20 -20 -20 -20
-1 -2 1 -4 3 -3 5 3 5 17 8 10 11 10 12 10 -20 -20 -13 -8 11 -20 -14 21 -16 18 29 32 33 -20 32 30 13 16 -1 -9 -20 -20 -20 -18 -20 -20 -18
5 -0 3 -4 5 2 -0 0 5 -8 -2 -10 13 18 14 -16 -17 -7 1 22 -3 5 8 22 20 -13 27 18 26 26 29 31 28 24 25 -1 -14 -20 -20 -20 -20 -20 -14
-1 -1 -20 -4 -2 -8 -0 -2 3 -6 -2 14 21 -0 8 10 16 -14 -20 -1 21 11 3 19 -19 12 22 -17 22 20 14 27 28 27 13 28 18 7 -20 -20 5 5 15
-20 -10 -20 -20 -3 -14 -13 -1 -15 -14 -9 4 5 13 8 15 26 -9 -19 -1 -16 -19 12 19 -19 -20 -14 -20 14 3 20 23 27 30 29 27 18 6 11 -12 -4 4 9
-20 -20 -20 -20 -18 -2 -20 0 -20 -19 -15 -9 6 6 7 19 12 29 22 1 -20 -17 34 34 6 -20 -17 -18 13 33 25 37 38 27 27 27 31 28 22 11 14 20 18
-20 -20 -20 -20 -20 -20 -14 -20 -0 -1 -18 -16 -6 -4 5 13 2 10 9 25 -20 7 34 27 40 20 25 11 14 23 26 33 29 27 25 29 25 23 21 18 17 19 19
-20 -20 -20 -20 -20 -20 -20 -20 -20 -20 -3 6 10 18 15 20 17 27 31 21 -20 -9 14 23 12 23 10 18 30 34 33 2 6 20 14 29 34 20 24 18 21 17 16
-20 -20 -20 -20 -20 -20 -20 -20 -20 -20 -20 -6 14 23 22 23 23 14 19 13 9 4 -13 -1 21 15 21 24 27 35 37 31 15 33 38 26 23 20 25 22 21 23 21
-20 -20 -20 -20 -20 -20 -20 -20 -20 -20 -20 -15 1 11 16 18 20 18 6 22 21 24 27 31 31 26 36 37 28 33 35 40 34 40 36 36 40 31 28 26 19 25 21
-20 -20 -20 -20 -20 -20 -20 -20 -20 -20 -18 -20 -5 7 7 15 15 19 4 13 21 24 23 24 17 25 23 30 29 21 24 27 29 27 28 25 28 31 38 35 33 35 28
-20 -20 -20 -20 -20 -20 -20 -20 -20 -20 -20 -7 -1 -6 5 5 -2 4 7 4 5 3 -6 -5 -2 -5 5 11 10 17 28 28 25 19 23 26 20 25 37 38 35 39 33
-20 -20 -20 -20 -20 -20 -20 -20 -20 -20 -20 -20 -15 3 5 3 7 -2 -8 3 -2 3 4 4 1 3 -3 6 11 16 19 23 19 20 14 13 14 19 22 27 21 28 29
-20 -20 -20 -20 -20 -20 -20 -20 -20 -20 -20 -20 -19 -6 -14 -2 2 0 2 -5 -7 -1 -12 0 1 -3 11 -5 1 8 14 14 8 16 9 1 3 7 10 14 14 16 25
-20 -20 -20 -20 -20 -20 -20 -20 -20 -20 -20 -20 -20 -20 -20 -3 -14 -6 -3 4 6 2 -4 -2 -4 -8 -8 -1 -12 -19 -7 4 -7 9 10 -10 -3 4 4 5 8 6 6

GFSMA_prec_radar_159.txt.gz
Reflectivity
-20 -20 -20 -20 -20 -20 -20 -20 -20 -20 -20 -20 -20 -4 -8 15 -12 -16 2 -17 -20 -20 -20 -20 -20 -20 -20 -20 -20 -20 -20 -20 -20 -20 -20 -20 -20 -20 -20 -20 -20 -0 -12
-20 -20 -20 -20 -20 -20 -20 -20 -20 -20 -20 -20 -20 -20 -18 -20 -11 4 -20 2 -7 -20 -20 -20 -20 -19 -20 -20 -20 -20 -20 -20 -20 -20 -20 -20 -20 -20 -20 -20 -20 -20 -20
-20 -20 -20 -20 -20 -20 -20 -20 -20 -20 -20 -20 -20 -20 -20 -20 -20 -18 5 -20 -13 25 -20 -20 -4 -20 -20 -20 -20 -20 -20 -20 -20 -20 -20 -20 -20 -20 -20 -20 -20 -20 -20
-20 -20 -20 -20 -20 -20 -20 -20 -20 -20 -20 -20 -20 -20 -20 -20 -20 -20 -11 -2 -1 2 31 -18 -20 -14 -20 -20 -20 -20 -20 -20 -20 -20 -20 -20 -20 -20 -20 -20 -20 -20 -20
-20 -20 -20 -20 -20 -20 -20 -20 -20 -20 -20 -20 -20 -20 -20 -20 -20 -20 -20 -20 5 28 -3 27 10 -20 -20 -20 -20 -20 -20 -20 -20 -20 -20 -20 -20 -20 -20 -20 -20 -20 -20
-20 -20 -20 -20 -20 -20 -20 -20 -20 -16 -5 -20 -20 -20 -20 -20 -20 -20 -18 -20 -20 -9 -13 1 26 -17 -2 -20 -8 -20 -20 -20 -20 -20 -20 -20 -20 -20 -20 -20 -20 -20 -20
-20 -20 -20 -20 -20 -20 -20 -20 -20 0 -7 -20 -20 -20 -20 -20 -20 -20 -20 -20 -20 -20 -20 27 28 24 -8 31 29 -20 -20 -20 -20 -20 -20 -20 -20 -20 -20 -20 -20 -20 -20
-20 -20 -14 -20 -20 -15 -20 -20 -9 -2 1 -20 9 4 -18 -20 -20 -20 -20 -20 -20 -20 -20 14 18 29 30 31 -20 -20 -20 -20 -20 -20 -20 -20 -20 -20 -20 -20 -20 -20 -20
-20 -20 -19 -20 -20 -3 1 -15 -18 -1 7 -2 7 14 9 -6 -20 -20 -20 -20 -20 -20 -20 -20 27 28 19 27 -8 -20 -13 -20 1 -19 -20 -20 -20 -20 -20 -20 -20 -20 -20
-20 -17 0 -20 -3 -3 -1 -5 1 -5 0 3 5 6 11 -3 15 0 -20 -20 -20 -6 7 -20 -8 13 26 49 43 31 -12 -20 -20 -1 -20 -20 -20 -20 -20 -20 -20 -20 -20
-8 -20 -2 -20 -1 0 -0 0 3 9 6 7 5 3 13 4 -1 -20 2 -20 -20 -20 -20 -14 -20 -8 -5 20 32 44 31 -4 7 9 26 -20 -20 -20 -20 -20 -20 -20 -20
-2 -20 2 -20 -1 -1 2 6 5 12 13 11 14 5 10 10 12 -20 -2 0 -1 -20 -20 -15 8 23 -5 2 12 47 34 29 27 3 -20 -20 19 -20 -20 -20 -20 -20 -20
-19 -5 -4 -8 -1 -3 4 4 12 9 13 7 8 11 11 3 18 16 12 -20 -20 -20 -13 12 24 1 -20 -4 10 27 28 27 29 31 2 -20 -4 -20 -20 -20 -20 -20 -20
-20 -20 -20 -19 -0 -18 5 -5 -0 6 19 15 2 -2 8 6 9 15 8 9 8 -11 -17 -18 -20 -11 10 22 -0 24 23 29 -11 30 29 27 2 30 -20 12 -20 -20 -20
-20 -20 -20 -20 -10 -20 -4 -0 1 -14 -0 -8 3 7 2 14 5 3 15 19 24 22 8 -19 -13 10 15 20 22 22 24 36 37 38 30 34 31 32 24 22 -5 -5 -16
-20 -20 -20 -20 -20 -20 -20 -10 -20 -20 -20 -9 -4 8 12 16 18 0 -0 18 5 9 4 14 14 -2 18 20 19 16 10 35 37 32 29 28 34 29 30 26 25 28 -14
-20 -20 -20 -20 -20 -20 -20 -20 -20 -20 -20 -18 -15 -11 -3 8 18 9 4 8 13 -7 9 9 6 6 16 15 -7 -19 -3 2 13 19 17 21 26 31 30 27 22 20 15
-20 -20 -20 -20 -20 -20 -20 -20 -20 -20 -20 -20 -17 -17 -8 -1 5 9 11 -4 21 7 14 12 -4 21 30 19 -6 -15 -11 6 -12 17 20 22 24 41 33 28 26 24 20
-20 -20 -20 -20 -20 -20 -20 -20 -20 -20 -20 -20 -19 -3 4 12 10 14 12 7 7 -3 21 -5 -4 18 16 24 25 23 8 -2 3 11 11 27 33 40 36 33 34 25 20
-20 -20 -20 -20 -20 -20 -20 -20 -20 -20 -20 -20 -20 -12 -8 9 15 16 13 22 22 20 19 16 33 21 30 31 7 26 26 15 20 19 24 34 40 41 35 32 34 34 33
-20 -20 -20 -20 -20 -20 -20 -20 -20 -20 -20 -20 -20 -20 -20 2 6 11 13 20 27 24 17 11 16 21 22 18 26 24 12 26 25 27 26 22 33 40 31 35 37 32 32
-20 -20 -20 -20 -20 -20 -20 -20 -20 -20 -20 -20 -20 -20 -20 -20 -7 4 12 15 17 21 22 24 22 20 19 21 19 19 23 25 29 28 26 34 26 19 35 35 38 38 39
-20 -20 -20 -20 -20 -20 -20 -20 -20 -20 -20 -20 -20 -20 -20 -17 -3 -3 -2 2 2 15 23 20 1 11 18 19 18 13 15 23 26 20 23 24 26 27 33 38 40 40 39
-20 -20 -20 -20 -20 -20 -20 -20 -20 -20 -20 -20 -20 -20 -20 -20 -20 -19 4 5 -7 -17 0 10 4 -0 9 -0 4 13 10 15 -2 2 2 10 17 21 22 27 26 26 19
-20 -20 -20 -20 -20 -20 -20 -20 -20 -20 -20 -20 -20 -20 -20 -20 -20 -20 -20 -19 0 7 -7 -5 9 -2 -13 -2 -13 -9 -20 -20 -12 -20 -5 -6 10 17 19 17 15 10 13
-20 -20 -20 -20 -20 -20 -20 -20 -20 -20 -20 -20 -20 -20 -10 -20 -20 -20 -20 -20 -18 -5 -8 -1 -8 -16 -7 -20 -20 -20 -20 -20 -20 -19 -3 -8 -2 -0 2 8 6 6 10

GFSMA_prec_radar_162.txt.gz
Reflectivity
-20 -20 -20 -20 -20 -20 -20 -20 -20 -20 -20 -20 -20 -20 -20 -20 -20 0 -20 -20 -20 -20 -15 -20 -14 -6 -20 -20 -20 -20 -20 -20 -20 -20 -20 -20 -20 -20 -20 17 4 7 24
-20 -20 -20 -20 -20 -20 -20 -20 -20 -20 -20 -20 -20 -20 -20 -20 -20 -20 -15 -20 -20 -20 -11 -20 -18 -5 29 -14 -20 -20 -20 -20 -20 -20 -20 -20 -20 -20 -20 -9 -20 -19 11
-20 -20 -20 -20 -20 -20 -20 -20 -20 -20 -20 -20 -20 -20 -20 -20 -20 -19 -20 4 -20 -20 -20 -20 29 -19 -6 28 -20 -20 -20 -20 -20 -20 -20 -20 -20 -20 -20 -20 -20 -20 -20
-20 -20 -20 -20 -20 -20 -20 -20 -20 -20 -20 -20 -20 -20 -20 -20 -20 -20 -19 -20 -3 -20 -20 -20 -20 -17 29 -20 -13 -20 -20 -20 -20 -20 -20 -20 -20 -20 -20 -20 -20 -20 -20
-20 -20 -20 -20 -20 -20 -20 -20 -20 -20 -20 -20 -20 -20 -20 -20 -20 -20 -20 -19 4 7 -20 -20 -20 11 26 31 24 -13 -20 -20 -20 -20 -20 -20 -20 -20 -20 -20 -20 -20 -20
-20 -20 -20 -20 -20 -20 -20 -20 -20 -20 -20 -20 -20 -20 -20 -20 -20 -20 -20 -20 -20 -20 2 -20 -4 -20 17 20 30 32 18 -20 -20 -20 -20 -20 -20 -20 -20 -20 -20 -20 -20
-20 -20 -20 -20 -20 -20 -20 -20 -20 -9 -20 -20 -20 -20 -20 -20 -20 -20 -20 -20 -20 -20 -20 -20 -20 10 -20 27 32 28 28 -10 -20 -20 -20 -20 -20 -20 -20 -20 -20 -20 -20
-20 -20 -20 -20 -20 -15 -20 -20 -20 -20 -2 -12 7 -4 -20 -20 -20 -20 -20 -20 -20 -20 -20 -20 -20 0 29 27 -13 32 23 -11 -17 -20 -20 -20 -20 -20 -20 -20 -20 -20 -20
-20 -20 -20 -20 -12 -20 -1 -20 -11 -2 -12 -20 -20 11 6 -8 -20 -20 -20 -20 -20 -15 -1 9 2 10 -11 -16 13 15 31 25 21 -19 -20 -20 -20 -20 -20 -20 -20 -20 -20
-20 -20 -20 -20 -4 -5 -3 -4 -2 -0 7 4 -5 -5 0 6 7 -2 -20 -20 -20 -20 -20 -18 14 17 8 -19 -20 14 19 42 39 30 -3 -20 -20 -20 -20 -20 -20 -20 -20
-20 -20 -11 -20 -20 -4 1 1 4 3 6 6 5 -0 -4 6 12 9 -19 -19 -20 -0 15 3 -5 -4 -20 19 -18 23 24 45 45 42 31 -6 -20 -20 -20 -20 -20 -20 -20
-20 -20 -20 -18 -15 -20 4 -1 -2 5 2 1 6 9 9 13 4 11 17 12 10 -20 -16 14 10 -14 -16 -11 -4 -19 -20 13 37 38 37 29 20 -15 -20 -20 -20 -20 -20
-20 -20 -20 -20 -17 -20 -5 -0 -3 0 5 4 2 2 7 7 12 6 12 13 5 -11 -7 -16 -13 -15 -12 3 -6 13 1 6 11 19 43 32 28 29 7 -12 -20 -20 -20
-20 -20 -20 -20 -20 -20 -20 -13 -8 -17 -1 5 3 2 8 12 12 16 16 13 11 13 -5 -20 -15 -20 -12 -0 15 12 4 14 -2 9 26 37 32 24 26 25 -20 -20 -20
-20 -20 -20 -20 -20 -20 -20 -20 -20 -20 -20 -1 2 1 2 7 17 16 19 14 14 12 15 -1 -11 -4 6 -13 23 -2 -1 23 -10 -11 6 23 18 24 23 20 15 -15 -20
-20 -20 -20 -20 -20 -20 -20 -20 -20 -20 -20 -20 -7 -12 -3 1 2 6 14 5 9 23 21 6 -11 -1 -15 -20 14 7 -9 3 -3 10 24 20 31 30 32 30 24 30 29
-20 -20 -20 -20 -20 -20 -20 -20 -20 -20 -20 -20 -20 -16 -17 -16 -5 5 11 -5 -2 -6 20 21 11 13 -20 -13 8 8 13 11 -2 11 6 19 14 45 45 37 30 35 30
-20 -20 -20 -20 -20 -20 -20 -20 -20 -20 -20 -20 -20 -20 -16 -20 -19 -7 -13 3 5 -2 18 20 15 15 21 4 2 12 13 -6 4 8 -15 -4 29 35 37 47 33 32 42
-20 -20 -20 -20 -20 -20 -20 -20 -20 -20 -20 -20 -20 -20 -19 -20 -20 -20 -16 -3 8 12 0 16 13 21 9 7 7 15 8 9 7 10 -8 3 9 27 31 24 25 42 34
-20 -20 -20 -20 -20 -20 -20 -20 -20 -20 -20 -20 -20 -20 -20 -16 -12 -20 -20 -8 7 14 16 13 14 21 17 12 6 5 9 8 6 -1 12 10 13 2 13 11 14 19 38
-20 -20 -20 -20 -20 -20 -20 -20 -20 -20 -20 -20 -20 -20 -6 1 1 -0 -8 -20 -12 3 8 18 16 19 26 20 2 6 15 20 22 19 -4 -12 -4 2 13 21 28 28 31
-20 -20 -20 -20 -20 -20 -20 -20 -20 -20 -20 -20 -20 -20 -20 -20 -5 -3 -3 -6 -2 4 7 11 20 25 18 23 21 14 20 21 22 10 2 2 11 21 20 30 31 29 36
-20 -20 -20 -20 -20 -20 -20 -20 -20 -20 -20 -20 -20 -20 -20 -20 -20 -20 -9 -9 -1 -5 1 12 11 18 19 18 12 19 14 16 12 19 18 8 18 21 19 19 35 38 39
-20 -20 -20 -20 -20 -20 -20 -20 -20 -20 -20 -20 -20 -20 -20 -20 -20 -20 -20 -20 -20 -7 4 -1 13 8 7 15 7 10 9 5 15 3 -12 -5 7 12 9 2 3 12 28
-20 -20 -20 -20 -20 -20 -20 -20 -20 -20 -20 -20 -20 -20 -20 -20 -20 -20 -20 -20 -20 -20 -19 -13 -11 8 12 -2 -8 1 5 -13 -1 -2 -4 -8 -6 -6 4 -7 -4 2 2
-20 -20 -20 -20 -20 -20 -20 -20 -20 -20 -20 -20 -20 -20 -20 -20 -20 -20 -20 -20 -20 -20 -20 -20 -20 -20 -9 8 -1 -5 -16 -1 -11 -20 -20 -20 -20 -11 -20 -13 1 6 5

GFSMA_prec_radar_165.txt.gz
Reflectivity
-20 -20 -20 -20 -20 -20 -20 -20 -20 -20 -20 -20 -20 -20 -20 -20 -20 -20 -20 12 3 -20 -7 -18 -20 -19 -8 -20 -3 14 -20 -20 -20 -20 -20 -20 -20 -20 -20 -20 -13 10 24
-20 -20 -20 -20 -20 -20 -20 -20 -20 -20 -20 -20 -20 -20 -20 -20 -20 -20 -20 -20 7 -8 -20 -20 -20 8 -13 15 -20 -3 25 -20 -20 -20 -20 -20 -20 -20 -20 -20 -20 13 23
-20 -20 -20 -20 -20 -20 -20 -20 -20 -20 -20 -20 -20 -20 -20 -20 -20 -20 -20 -20 -20 -20 -20 -18 -20 -18 -17 -11 -14 -20 -7 -20 -20 -20 -20 -20 -20 -20 -20 -20 -20 13 -1
-20 -20 -20 -20 -20 -20 -20 -20 -20 -20 -20 -20 -20 -20 -20 -20 -20 -20 -20 -20 -20 -17 -16 -20 -20 -16 6 -20 -12 -15 -15 -20 -20 -20 -20 -20 -20 -20 -20 -20 -20 -20 26
-20 -20 -20 -20 -20 -20 -20 -20 -20 -20 -20 -20 -20 -20 -20 -20 -20 -20 -20 -20 -20 -20 -20 -12 -20 -20 20 -1 6 -6 16 11 -18 -20 -20 -20 -20 -20 -20 -20 -20 -20 -20
-20 -20 -20 -20 -20 -20 -20 -20 -20 -20 -20 -20 -20 -20 -20 -20 -20 -20 -20 -20 -20 -20 -20 -20 -20 -20 -7 13 9 28 1 13 12 -13 -20 -20 -20 -20 -20 -20 -20 -20 -20
-20 -20 -20 -20 -20 -20 -20 -20 -20 -20 -20 -20 -20 -20 -20 -20 -20 -20 -20 -20 -20 -20 -20 -20 -20 -20 -20 4 -20 6 25 -4 -14 11 -16 -20 -20 -20 -20 -20 -20 -20 -20
-20 -20 -20 -20 -20 -20 -20 -19 -17 -2 -20 -20 -13 -20 -20 -20 -20 -20 -20 -20 -20 -20 -20 -19 -13 -18 -20 -20 -20 13 27 26 -13 -20 -4 -20 -20 -20 -20 -20 -20 -20 -20
-20 -20 -20 -20 -20 -20 -16 -5 0 -10 -5 -18 -11 7 6 -12 -7 -20 -20 -17 -19 -20 -20 -8 -20 -5 3 11 4 3 8 22 27 31 38 5 -20 -20 -20 -20 -20 -20 -20
-20 -20 -20 -20 -20 -20 -4 -11 -17 -6 4 -15 -19 -5 11 16 14 -1 -20 -20 -20 -11 -20 -20 -20 -11 -13 0 14 11 18 6 22 29 30 48 28 -11 -20 -20 -20 -20 -20
-20 -20 -20 -20 -20 -20 -2 -3 -20 -6 -4 2 6 -11 -10 -16 10 16 10 -8 -20 -20 -20 -20 -20 -20 -20 -20 -20 12 23 9 -16 2 30 38 38 27 34 -13 -20 -20 -20
-20 -20 -20 -20 -20 -20 -8 -16 -20 -19 -2 -3 -0 -1 4 8 -7 8 4 -7 -20 -20 -20 -20 -20 -20 -0 -5 12 12 -6 15 5 -5 21 41 27 32 27 20 -8 -20 -20
-20 -20 -20 -20 -20 -20 -19 -20 -20 -20 -20 -1 1 3 -1 9 11 10 9 4 5 -20 -20 -20 -20 -1 3 3 -1 19 5 17 7 -20 -20 -16 3 22 33 23 16 1 -20
-20 -20 -20 -20 -20 -20 -20 -20 -20 -20 -20 -20 -17 -0 3 4 7 12 14 14 2 1 -20 2 -11 12 3 11 12 19 13 12 11 -19 -17 -20 6 11 12 14 27 29 29
-20 -20 -20 -20 -20 -20 -20 -20 -20 -20 -20 -20 -20 -6 3 3 4 5 18 16 15 5 3 5 -7 24 2 2 11 0 5 18 15 13 4 7 -18 8 9 3 30 35 29
-20 -20 -20 -20 -20 -20 -20 -20 -20 -20 -20 -20 -20 -20 -16 -3 -1 -0 5 11 16 13 10 10 13 9 -1 -1 11 9 7 -0 6 13 19 26 11 15 17 3 36 42 33
-20 -20 -20 -20 -20 -20 -20 -20 -20 -20 -20 -20 -20 -20 -20 -20 -19 -12 3 5 12 11 21 2 15 18 8 17 13 13 3 -11 -1 16 17 30 30 16 16 24 15 16 21
-20 -20 -20 -20 -20 -20 -20 -20 -20 -20 -20 -20 -20 -20 -20 -20 -20 -20 -19 -11 7 12 15 10 16 12 4 13 23 22 16 -15 -9 10 11 24 10 34 41 32 28 29 19
-20 -20 -20 -20 -20 -20 -20 -20 -20 -20 -20 -20 -20 -20 -20 -20 -20 -20 -20 -18 -16 -4 10 14 4 2 14 11 13 14 17 12 8 14 4 18 16 28 28 32 33 10 30
-20 -20 -20 -20 -20 -20 -20 -20 -20 -20 -20 -20 -20 -20 -20 -20 -20 -20 -20 -20 -20 -20 -17 -11 -9 10 13 6 15 10 9 14 16 7 11 9 6 2 -2 12 14 26 25
-20 -20 -20 -20 -20 -20 -20 -20 -20 -20 -20 -20 -20 -20 -20 -12 -4 -10 -20 -20 -20 -20 -20 -20 -20 -20 -9 13 17 17 13 15 7 -1 10 9 2 -18 -20 -13 3 13 15
-20 -20 -20 -20 -20 -20 -20 -20 -20 -20 -20 -20 -20 -20 -20 -20 -20 -10 -4 -17 -20 -20 -20 -20 -20 -20 -17 -0 11 19 15 10 7 -14 12 15 7 -10 -0 -17 4 8 15
-20 -20 -20 -20 -20 -20 -20 -20 -20 -20 -20 -20 -20 -20 -20 -20 -20 -20 -20 -20 -20 -5 -0 -20 -20 -12 -17 -18 -19 -5 6 12 18 12 12 11 10 -3 5 2 7 23 22
-20 -20 -20 -20 -20 -20 -20 -20 -20 -20 -20 -20 -20 -20 -20 -20 -20 -20 -20 -20 -20 -20 -16 -4 -3 -6 -3 -16 -13 2 15 16 11 -2 6 8 -11 0 3 4 11 11 6
-20 -20 -20 -20 -20 -20 -20 -20 -20 -20 -20 -20 -20 -20 -20 -20 -20 -20 -20 -20 -20 -20 -20 -20 -20 -18 -17 -14 1 -6 -4 9 12 10 8 -2 -2 -11 -14 -8 5 8 6
-20 -20 -20 -20 -20 -20 -20 -20 -20 -20 -20 -20 -20 -20 -20 -20 -20 -20 -20 -20 -20 -20 -20 -20 -20 -20 -20 -20 -20 -13 5 4 -16 -2 -14 -2 2 11 9 -10 5 6 -10

GFSMA_prec_radar_171.txt.gz
Reflectivity
-20 -20 -20 -20 -20 -20 -20 -20 -20 -20 -20 -20 -20 -20 -20 -20 -20 -20 -20 -20 -20 -20 -20 -20 -15 16 5 -20 -20 -20 -20 -20 -20 -20 -20 -20 -20 -20 -20 -20 -20 -20 -20
-20 -20 -20 -20 -20 -20 -20 -20 -20 -20 -20 -20 -20 -20 -20 -20 -20 -20 -20 -20 -20 -20 -20 -20 -20 -18 12 -7 5 7 -20 -20 -20 -20 -20 -20 -20 -20 -20 -20 -20 -20 -20
-20 -20 -20 -20 -20 -20 -20 -20 -20 -20 -20 -20 -20 -20 -20 -20 -20 -20 -20 -20 -20 -20 -20 -20 -20 -20 -20 2 -20 8 13 -20 -20 -20 -20 -20 -20 -20 -20 -20 -20 -20 -20
-20 -20 -20 -20 -20 -20 -20 -20 -20 -20 -20 -20 -20 -20 -20 -20 -20 -20 -20 -20 -20 -20 -20 -20 -20 -20 -15 -0 -16 -20 -0 5 -20 -20 -20 -20 -20 -20 -20 -20 -20 -20 -20
-20 -20 -20 -20 -20 -20 -20 -20 -20 -20 -20 -20 -20 -20 -20 -20 -20 -20 -20 -20 -20 -20 -20 -20 -20 -20 -20 -20 -20 -12 9 19 -15 -20 -20 -20 -20 -20 -20 -20 -20 -20 -20
-20 -20 -20 -20 -20 -20 -20 -20 -20 -20 -20 -20 -20 -20 -20 -20 -20 -20 -20 -20 -20 -20 -20 -19 -18 -20 -20 -20 -20 -20 -20 -20 10 -8 -18 -20 -20 -20 -20 -10 -20 -20 -20
-20 -20 -20 -20 -20 -20 -20 -20 -20 -20 -20 -20 -20 -20 -20 -20 -20 -20 -20 -20 -20 -20 -20 -20 -20 -20 11 -4 -14 -4 -20 -20 -20 1 -7 -16 -20 -20 -20 11 7 -20 -20
-20 -20 -20 -20 -20 -20 -20 -20 -20 -20 -20 -20 -20 -16 -17 -10 -20 -20 -20 -20 -20 -20 -20 -20 -20 -20 -8 -20 11 -20 -2 -8 -6 -13 -20 -19 26 4 -20 25 15 -20 -11
-20 -20 -20 -20 -20 -20 -20 -20 -20 -20 -17 -20 -20 -14 -11 -5 -20 -20 -20 -20 -20 -20 -20 -20 -20 5 5 8 3 -20 -7 -20 -20 8 4 -20 15 11 31 7 5 -13 -20
-20 -20 -20 -20 -20 -20 -20 -20 -20 -20 -20 -8 -20 -20 -16 7 8 -2 -20 -20 -20 -20 -20 -20 2 9 3 -1 8 7 8 -20 -19 -20 6 -2 -20 16 27 17 21 30 19
-20 -20 -20 -20 -20 -20 -20 -20 -20 -20 -20 -7 -3 -17 -20 -20 11 8 -6 -20 -20 -20 -11 4 13 4 -12 -2 -1 3 -5 -4 -20 -20 -16 7 12 8 24 34 50 46 28
-20 -20 -20 -20 -20 -20 -20 -20 -20 -20 -20 -20 -10 -1 -10 1 -1 3 -1 -16 -20 -17 22 16 -4 6 -1 2 3 12 8 -20 -18 -20 -14 -20 -12 11 15 30 26 32 32
-20 -20 -20 -20 -20 -20 -20 -20 -20 -20 -20 -16 -3 -11 1 -4 2 1 -0 -3 -1 -13 18 17 12 13 9 4 8 10 5 -6 -20 0 10 -6 10 5 18 19 22 -15 10
-20 -20 -20 -20 -20 -20 -20 -20 -20 -20 -20 -6 -20 -6 -12 -5 -4 1 4 2 -8 5 16 18 13 17 17 19 23 16 5 -11 -10 2 7 1 6 14 4 14 17 17 -0
-20 -20 -20 -20 -20 -20 -20 -20 -20 -20 -20 -20 -20 -20 -15 -6 -3 -0 3 5 5 2 1 1 -2 5 14 18 21 8 7 20 18 -3 4 1 10 3 21 23 26 30 23
-20 -20 -20 -20 -20 -20 -20 -20 -20 -20 -20 -20 -20 -20 -20 -13 -4 -3 -0 0 3 2 6 1 6 12 18 2 21 9 13 9 3 7 8 8 9 16 19 12 23 26 3
-20 -20 -20 -20 -20 -20 -20 -20 -20 -20 -20 -20 -20 -20 -20 -20 -20 -14 -15 -3 -15 -10 4 1 2 17 9 17 8 10 5 -1 5 13 7 -0 6 25 19 24 23 22 16
-20 -20 -20 -20 -20 -20 -20 -20 -20 -20 -20 -20 -20 -20 -20 -20 -20 -20 -20 -16 -2 -19 -20 -8 -6 -1 6 3 10 -1 4 14 20 10 11 9 4 13 27 29 28 -0 26
-20 -20 -20 -20 -20 -20 -20 -20 -20 -20 -20 -20 -20 -20 -12 -20 -18 -20 -20 -20 -20 -20 -20 -16 -20 -13 -2 -5 -1 -1 1 -1 -1 1 5 0 11 9 23 36 13 21 23
-20 -20 -20 -20 -20 -20 -20 -20 -20 -20 -20 -20 -20 -20 -17 -11 -14 -14 -16 -20 -20 -20 -20 -20 -1 -6 -6 -4 -9 -0 -2 0 -4 -8 -0 1 -0 24 12 10 10 20 25
-20 -20 -20 -20 -20 -20 -20 -20 -20 -20 -20 -20 -20 -20 -20 -20 -20 -19 -20 -20 -20 -20 -20 -20 -20 -20 -1 -1 3 2 -2 4 -0 -2 1 -1 3 1 6 -8 4 4 8
-20 -20 -20 -20 -20 -20 -20 -20 -20 -20 -20 -20 -20 -20 -20 -20 -20 -20 -20 -20 -19 -20 -20 -20 -20 -20 -4 -1 0 1 -20 -20 -2 -20 -1 -4 6 3 10 14 2 -1 1
-20 -20 -20 -20 -20 -20 -20 -20 -20 -20 -20 -20 -20 -20 -20 -20 -20 -20 -20 -20 -20 -20 -17 -20 -18 -7 -20 -20 -10 -15 -1 -20 -13 -20 -9 1 -1 3 -19 -9 -3 -11 -0
-20 -20 -20 -20 -20 -20 -20 -20 -20 -20 -20 -20 -20 -20 -20 -20 -20 -20 -20 -20 -20 -20 -20 -20 -20 -20 -20 -20 -20 -20 -20 -0 -20 -20 -20 -20 -4 4 3 -20 -20 -20 -20
-20 -20 -20 -20 -20 -20 -20 -20 -20 -20 -20 -20 -20 -20 -20 -20 -20 -20 -20 -20 -20 -20 -20 -20 -20 -20 -20 -20 -20 -20 -20 -20 -20 -20 -20 -20 -20 -3 6 1 -20 -20 -20
-20 -20 -20 -20 -20 -20 -20 -20 -20 -20 -20 -20 -20 -20 -20 -20 -20 -20 -20 -20 -20 -20 -20 -20 -20 -20 -20 -20 -20 -20 -20 -20 -20 -20 -20 -4 -20 -20 -20 -20 -12 -20 -20

GFSMA_prec_radar_177.txt.gz
Reflectivity
-20 -20 -20 -20 -20 -20 -20 -20 -20 -20 -20 -20 -20 -20 -20 -20 -20 -20 -20 -20 -20 -20 -20 -20 -20 -20 -20 -20 -16 20 12 -10 -20 -20 -20 -20 -20 -20 -20 -20 -20 -20 -20
-20 -20 -20 -20 -20 -20 -20 -20 -20 -20 -20 -20 -20 -20 -20 -20 -20 -20 -20 -20 -20 -20 -20 -20 -20 -20 -20 -20 -20 -20 -20 1 2 -19 -20 -20 -9 -20 -20 -20 -20 -20 -20
-20 -20 -20 -20 -20 -20 -20 -20 -20 -20 -20 -20 -20 -20 -20 -20 -20 -20 -20 -20 -20 -20 -20 -20 -20 -20 -20 -20 -20 -20 -20 -20 -19 -13 -4 -20 -20 -20 -14 -20 -20 -15 -20
-20 -20 -20 -20 -20 -20 -20 -20 -20 -20 -20 -20 -20 -20 -20 -20 -20 -20 -20 -20 -20 -20 -20 -20 -20 -20 -20 -20 -20 -20 -20 2 1 12 -8 1 -8 -20 -20 -17 -20 4 -19
-20 -20 -20 -20 -20 -20 -20 -20 -20 -20 -20 -20 -20 -20 -20 -20 -20 -20 -20 -20 -20 -20 -20 7 5 7 -15 -9 -7 -7 -20 -20 -20 -20 6 5 19 28 8 -16 -12 -11 -19
-20 -20 -20 -20 -20 -20 -20 -20 -20 -20 -20 -20 -20 -20 -20 -20 -20 -20 -20 -20 -20 -20 -20 -20 -20 -9 17 15 14 19 15 16 14 6 0 -7 12 14 26 -15 -15 23 31
-20 -20 -20 -20 -20 -20 -20 -20 -20 -20 -20 -20 -20 -20 -20 -20 -20 -20 -20 -0 -20 -17 -20 -20 2 -20 6 17 16 18 18 10 2 -0 8 11 -10 10 -4 18 6 -14 28
-20 -20 -20 -20 -20 -20 -20 -20 -20 -20 -20 -20 -20 -20 -20 -20 -20 -20 -20 -20 -20 -20 -19 -8 -20 -19 6 -11 5 13 13 11 8 3 11 6 1 -20 11 7 13 18 16
-20 -20 -20 -20 -20 -20 -20 -20 -20 -20 -20 -20 -20 -20 -20 -20 -20 -20 -20 -20 -20 -20 -18 11 17 -16 -17 -1 5 2 2 4 3 11 14 13 6 -19 -20 9 19 13 31
-20 -20 -20 -20 -20 -20 -20 -20 -20 -20 -20 -20 -20 -20 -20 -10 1 -9 -20 -20 -20 -20 -20 1 8 10 0 4 15 7 4 1 8 10 12 11 10 7 10 -7 -10 20 18
-20 -20 -20 -20 -20 -20 -20 -20 -20 -20 -20 -20 -20 -20 -20 -20 -20 -6 -12 -20 -20 -19 -0 7 2 8 9 14 9 9 4 7 11 12 11 13 14 17 15 11 11 -18 15
-20 -20 -20 -20 -20 -20 -20 -20 -20 -20 -20 -20 -20 -20 -20 -13 -14 1 0 -13 -12 -20 14 -5 -2 6 7 8 14 11 7 10 11 12 13 12 10 11 11 12 14 15 14
-20 -20 -20 -20 -20 -20 -20 -20 -20 -20 -20 -20 -20 -20 -20 -14 -3 -1 0 -4 -20 -20 -4 3 1 4 10 16 17 18 15 15 13 12 12 14 13 2 12 14 15 -3 -20
-20 -20 -20 -20 -20 -20 -20 -20 -20 -20 -20 -20 -20 -20 -20 -8 -20 -14 4 5 -7 -18 3 -1 4 6 12 7 14 13 14 18 17 12 13 11 12 10 6 16 8 14 19
-20 -20 -20 -20 -20 -20 -20 -20 -20 -20 -20 -20 -20 -20 -20 -20 -20 -20 3 2 8 3 5 -2 8 7 4 14 12 6 7 12 9 14 11 13 11 9 11 10 21 12 18
-20 -20 -20 -20 -20 -20 -20 -20 -20 -20 -20 -20 -20 -20 -20 -20 -20 -20 -20 -3 4 2 6 -0 7 11 8 13 14 12 11 7 6 8 8 9 11 12 21 12 7 4 15
-20 -20 -20 -20 -20 -20 -20 -20 -20 -20 -20 -20 -20 -20 -20 -20 -20 -20 -20 -15 -20 -9 1 2 -10 1 -1 -7 11 14 6 10 7 5 4 5 5 7 11 17 6 11 11
-20 -20 -20 -20 -20 -20 -20 -20 -20 -20 -20 -20 -20 -20 -20 -20 -20 -20 -20 -20 -20 -20 -10 -19 -15 -12 5 -18 -20 3 14 2 -1 -18 4 0 2 1 4 6 9 12 10
-20 -20 -20 -20 -20 -20 -20 -20 -20 -20 -20 -20 -20 -20 -20 -20 -20 -4 -20 -20 -20 -20 -20 -0 -2 -1 -16 -10 -4 -15 -2 3 -20 1 4 7 1 -1 -4 -1 5 11 21
-20 -20 -18 -20 -14 -20 -20 -20 -20 -19 -20 -20 -20 -20 -20 -20 -20 -20 -14 -15 -13 -15 -5 -4 -3 -2 -2 -0 3 3 6 9 -20 -20 -8 -1 -10 -20 -20 -20 -18 -2 13
-20 -16 -14 -12 -2 -20 -17 -20 -20 -20 -20 -20 -20 -20 -20 -20 -20 -20 -20 -20 -20 -20 -20 -20 -20 -20 -20 -20 -2 -2 4 5 -4 -20 -20 -11 9 -2 -20 -20 -20 -20 -20
-20 -20 -20 -20 -20 -20 -20 -20 -20 -20 -20 -20 -20 -20 -20 -20 -20 -20 -20 -20 -20 -20 -20 -20 -20 -20 -20 -20 -20 -20 -12 1 -20 -20 -20 -3 -20 11 -19 -20 -20 -20 -20
-20 -20 -20 -20 -20 -20 -20 -20 -20 -20 -20 -20 -20 -20 -20 -20 -20 -20 -20 -20 -20 -20 -20 -20 -20 -20 -20 -20 -20 -20 -20 -20 -12 -20 -20 -3 -20 5 9 -20 -20 -20 -20
-20 -20 -20 -20 -20 -20 -20 -20 -20 -20 -20 -20 -20 -20 -20 -20 -20 -20 -20 -20 -20 -20 -20 -20 -20 -20 -20 -20 -20 -20 -20 -20 -20 -20 -20 -19 -20 -8 -5 -13 -20 -20 -20
-20 -20 -20 -20 -20 -20 -20 -20 -20 -20 -20 -20 -20 -20 -20 -20 -20 -20 -20 -20 -20 -20 -20 -20 -20 -20 -20 -20 -20 -20 -20 -20 -20 -16 -20 -20 -20 -20 4 -19 -20 -20 -20
-20 -20 -20 -20 -20 -20 -20 -20 -20 -20 -20 -20 -20 -19 -20 -20 -20 -20 -20 -20 -20 -20 -18 -16 -0 -2 -3 -17 -20 -20 -20 -20 -20 -20 -20 -19 -5 -12 -6 -4 -4 -20 -20

GFSMA_prec_radar_180.txt.gz
Reflectivity
-20 -20 -20 -20 -20 -20 -20 -20 -20 -20 -20 -20 -20 -20 -20 -20 -20 -20 -20 -20 -20 -20 -20 -20 -20 -20 -20 -20 -20 -20 -9 34 34 12 -18 -20 -20 -20 -20 -20 -20 -20 -20
-20 -20 -20 -20 -20 -20 -20 -20 -20 -20 -20 -20 -20 -20 -20 -20 -20 -20 -20 -20 -20 -20 -20 -20 -20 -20 -20 -20 -20 -20 -20 -20 -7 32 24 -7 -20 -20 9 -20 -20 -20 -20
-20 -20 -20 -20 -20 -20 -20 -20 -20 -20 -20 -20 -20 -20 -20 -20 -20 -20 -20 -20 -20 -20 -20 -20 -20 -20 -12 3 -20 -20 -20 -20 -19 5 22 28 -9 -17 -17 -16 -20 -20 -20
-20 -20 -20 -20 -20 -20 -20 -20 -20 -20 -20 -20 -20 -20 -20 -20 -20 -20 -20 -20 -20 -20 -20 7 12 12 12 10 9 16 9 -20 -20 -20 -16 27 27 31 7 -14 -14 -16 -19
-20 -20 -20 -20 -20 -20 -20 -20 -20 -20 -20 -20 -20 -20 -20 -20 -20 -20 -20 -20 -20 -20 -20 -11 8 16 15 14 13 16 14 16 13 11 3 11 10 21 20 9 -11 23 30
-20 -20 -20 -20 -20 -20 -20 -20 -20 -20 -20 -20 -20 -20 -20 -20 -20 -20 -20 -20 -20 -10 -20 -20 -19 -8 15 14 17 14 16 16 15 15 14 13 -0 0 19 15 10 -4 -7
-20 -20 -20 -20 -20 -20 -20 -20 -20 -20 -20 -20 -20 -20 -20 -20 -20 -20 -20 -20 -20 -20 -20 4 -4 -12 -4 13 13 13 13 15 14 12 12 14 14 10 -20 1 21 9 31
-20 -20 -20 -20 -20 -20 -20 -20 -20 -20 -20 -20 -20 -20 -20 -20 -20 -20 -20 -20 -20 -20 -20 -20 2 5 -5 -20 9 10 7 8 12 12 8 16 16 13 3 -20 -11 22 7
-20 -20 -20 -20 -20 -20 -20 -20 -20 -20 -20 -20 -20 -20 -20 -20 -20 -20 -20 -20 -20 -20 -20 -20 -20 -12 -13 -1 -5 -12 4 0 7 10 12 11 17 14 17 12 -0 -14 11
-20 -20 -20 -20 -20 -20 -20 -20 -20 -20 -20 -20 -20 -20 -20 -20 -20 -20 -20 -20 -20 -20 -20 -20 -20 -2 -9 -4 7 7 2 8 12 15 15 15 12 15 12 13 14 9 10
-20 -20 -20 -20 -20 -20 -20 -20 -20 -20 -20 -20 -20 -20 -20 -20 -20 -20 -20 -20 -20 -12 -16 -19 -20 3 -3 3 4 4 8 6 11 13 15 16 14 13 11 14 17 12 -18
-20 -20 -20 -20 -20 -20 -20 -20 -20 -20 -20 -20 -20 -20 -20 -20 -20 -18 -14 -19 -20 -20 -6 -20 -18 -20 -13 6 7 7 13 13 13 17 15 14 14 15 13 13 10 13 12
-20 -20 -20 -20 -20 -20 -20 -20 -20 -20 -20 -20 -20 -20 -20 -20 -20 -3 -17 -20 -20 -12 -0 -16 -20 -14 9 -4 3 4 9 8 12 16 19 15 16 16 15 13 10 10 3
-20 -20 -20 -20 -20 -20 -20 -20 -20 -20 -20 -20 -20 -20 -20 -20 -20 2 -18 1 -13 -20 6 -19 -20 -20 -19 13 16 5 -20 8 6 11 13 14 13 16 17 15 13 18 20
-20 -20 -20 -20 -20 -20 -20 -20 -20 -20 -20 -20 -20 -20 -20 -20 -20 -20 -20 -9 1 -17 0 -5 -20 -11 -20 -11 12 6 6 8 5 2 3 4 8 12 12 15 14 11 12
-20 -20 -20 -20 -20 -20 -20 -20 -20 -20 -20 -20 -20 -20 -20 -20 -20 -20 -20 -20 -20 -20 2 -2 -20 -20 -9 -20 -18 10 4 7 5 8 4 2 1 4 8 8 17 13 12
-20 -20 -20 -20 -20 -20 -20 -20 -20 -20 -20 -20 -20 -20 -20 -20 -20 -20 -20 -20 -20 -20 -13 -18 -12 -20 -2 -20 -20 -18 10 -9 -20 4 7 0 -6 -15 -1 4 6 20 14
-20 -20 -20 -20 -20 -20 -20 -20 -20 -20 -20 -20 -20 -20 -20 -20 -20 -20 -20 -20 -20 -20 -20 -20 -5 -20 -9 -20 -20 -20 2 -19 -20 4 -7 -2 -20 -20 -20 -19 -0 5 13
-20 -20 -20 -20 -20 -20 -20 -20 -20 -20 -20 -20 -20 -20 -20 -20 -20 -20 -20 -20 -20 -20 -20 -20 -20 -20 -20 -20 -20 -20 -8 -20 -20 -20 -15 5 -20 -20 -20 -20 -20 -10 8
-20 -20 -20 -20 -20 -20 -20 -20 -20 -20 -20 -20 -20 -20 -20 -20 -20 -20 -20 -20 -20 -20 -20 -20 -20 -20 -20 -20 -20 -20 -20 -20 -20 -20 -20 -20 4 -20 -20 -20 -20 -20 -20
-20 -20 -20 -20 -20 -20 -20 -20 -20 -20 -20 -20 -20 -20 -20 -20 -20 -20 -20 -20 -20 -20 -20 -20 -20 -20 -20 -20 -20 -20 -20 -20 -20 -20 -20 -20 -18 -20 -20 -20 -20 -20 -20
-20 -20 -20 -20 -20 -20 -20 -20 -20 -20 -20 -20 -20 -20 -20 -20 -20 -20 -20 -20 -20 -20 -20 -20 -20 -20 -20 -20 -20 -20 -20 -20 -2 -20 -20 -20 -20 -20 -20 -20 -20 -20 -20
-20 -20 -20 -20 -20 -20 -20 -20 -20 -20 -20 -20 -20 -20 -20 -20 -20 -20 -20 -20 -20 -20 -20 -20 -20 -20 -20 -20 -20 -20 -20 -20 -20 -20 -20 -20 -20 -20 7 -20 -20 -20 -20
-20 -20 -20 -20 -20 -20 -20 -20 -20 -20 -20 -20 -20 -20 -20 -20 -20 -20 -20 -20 -20 -20 -20 -20 -20 -20 -20 -20 -20 -20 -20 -20 -20 -20 -20 -20 -8 -20 -10 -20 -20 -20 -20
-20 -20 -20 -20 -20 -20 -20 -20 -20 -20 -20 -20 -20 -20 -20 -20 -20 -20 -20 -20 -20 -20 -20 -20 -20 -20 -7 -1 -5 -20 -20 -20 -20 -20 -20 -20 -20 -20 -5 -15 -20 -20 -20
-20 -20 -20 -20 -20 -20 -20 -20 -20 -20 -20 -20 -20 -20 -20 -20 -20 -20 -20 -20 -20 -20 -20 -20 -6 -20 -20 -20 -20 -20 -20 -20 -20 -20 -20 -20 -20 -20 -20 -20 -17 -20 -20